GFSNW_sfc_dewp_000.txt.gz
Dewpoint
51 51 51 51 51 51 53 55 39 57 61 37 39 41 31 35 31 33 33 31 29 28 29 28 30 30 34 33 32 30 30 31 38 23 27 28 27 27 25 35 29 36 35 26
50 51 51 51 51 51 53 43 46 55 56 43 54 37 33 31 30 29 30 32 33 33 33 32 32 36 37 37 37 36 34 36 34 27 31 30 25 27 25 33 35 30 34 29
50 51 51 50 51 51 52 46 45 41 44 46 40 36 34 34 35 34 33 33 34 34 34 34 34 36 38 38 37 42 41 29 32 30 23 22 24 21 22 23 34 31 31 26
49 51 51 50 50 51 52 47 43 37 50 46 38 36 33 33 33 34 34 32 32 34 36 34 33 35 36 35 39 36 35 36 32 29 24 22 21 21 21 20 25 27 28 24
50 51 51 50 50 50 52 45 43 43 42 41 37 39 33 31 30 33 31 32 33 33 38 32 33 30 29 32 35 34 37 40 38 36 25 24 25 23 22 21 21 22 24 25
51 51 50 50 50 52 49 48 49 45 43 40 41 42 35 32 37 38 32 33 35 40 36 38 38 38 37 34 36 40 41 41 37 34 33 34 35 35 25 23 24 26 30 29
52 51 50 49 50 51 56 52 47 51 48 46 41 37 34 33 36 35 33 34 41 39 40 41 41 41 39 37 37 41 40 40 40 36 36 31 28 27 27 27 26 26 26 32
51 51 50 49 49 51 54 52 52 48 41 46 39 37 34 37 36 37 40 40 40 42 41 45 37 39 37 39 34 38 41 44 35 35 30 29 28 29 30 31 30 30 35 36
51 50 50 50 49 50 56 55 57 50 50 48 37 35 39 45 45 45 43 45 45 43 52 43 36 36 34 33 32 37 39 44 41 35 30 26 36 30 33 33 31 38 39 38
51 50 50 50 49 50 55 56 59 56 50 42 42 41 43 43 44 43 44 47 46 44 44 36 42 37 31 31 34 35 36 38 36 34 32 33 31 31 34 31 35 42 41 39
51 50 50 50 49 49 53 56 57 56 51 46 46 43 43 41 44 47 45 45 48 50 38 40 43 39 40 37 34 35 34 35 34 35 33 29 34 32 36 41 44 42 40 39
50 51 50 50 50 49 51 54 55 57 54 50 53 51 51 48 46 46 48 42 45 48 46 44 46 37 37 41 35 28 33 39 39 36 36 39 38 39 41 45 43 42 41 39
50 50 50 50 50 50 51 56 57 57 59 50 49 47 49 50 51 54 46 51 43 46 49 45 41 35 42 35 39 40 31 31 42 40 35 34 38 40 43 43 42 40 39 38
50 50 50 50 50 50 51 55 56 55 52 38 52 49 48 50 49 48 52 51 53 52 48 42 37 37 43 41 40 42 40 34 36 36 36 36 40 42 42 42 41 40 38 37
49 50 49 49 51 50 54 56 56 55 53 46 51 48 48 48 50 48 50 52 51 51 45 37 39 48 48 48 45 42 37 34 38 38 39 41 41 41 40 40 39 38 36 29
48 49 49 49 50 50 55 49 55 55 56 52 45 50 47 47 49 48 48 49 50 50 48 42 45 46 47 38 38 38 35 34 36 37 42 43 43 41 39 37 32 31 29 27
47 49 49 49 49 54 52 50 52 50 57 50 45 47 46 46 48 49 49 51 50 49 49 49 47 48 44 38 38 36 34 34 35 41 42 40 40 38 38 32 30 30 26 21
48 49 49 49 49 50 53 53 52 52 53 53 45 43 44 46 45 45 46 48 48 48 46 46 45 46 46 40 37 37 36 36 39 39 40 39 37 37 31 28 25 21 18 19
48 49 49 53 52 52 53 48 50 57 52 48 42 38 37 45 43 44 45 45 40 46 41 43 43 41 38 39 37 36 36 37 37 38 36 34 30 28 25 22 19 18 20 21
48 50 47 41 45 48 49 52 51 50 52 50 39 45 41 43 40 38 40 41 39 36 39 40 36 37 39 37 38 38 39 38 38 38 35 32 29 24 20 19 21 23 26 26
46 41 38 44 47 49 47 42 41 41 39 44 43 42 39 44 39 37 41 36 37 34 37 37 34 34 36 39 38 38 38 37 35 34 33 29 21 20 22 29 32 33 32 31
45 44 45 44 41 37 38 36 36 37 38 39 36 40 43 41 43 40 36 34 34 32 37 33 33 35 36 37 37 36 35 34 29 25 21 21 20 23 34 35 35 33 33 32
43 39 35 36 33 32 32 32 33 34 34 35 35 34 37 37 38 34 33 32 32 36 33 30 33 34 34 36 37 34 30 29 28 20 21 25 24 29 32 32 33 32 33 33
35 33 32 32 32 33 33 33 32 34 34 35 35 34 34 33 33 32 32 33 35 30 29 30 35 32 33 35 36 30 26 28 31 30 34 33 33 32 32 32 32 30 30 32
36 35 31 32 33 34 33 33 34 35 37 36 34 34 36 33 32 33 32 29 28 30 31 34 35 35 34 34 33 29 30 30 32 32 32 32 32 31 32 33 33 33 33 32
36 35 33 33 33 32 32 32 33 37 36 38 37 33 32 32 33 30 30 29 28 34 36 38 33 32 32 31 31 32 33 32 33 33 34 33 33 32 33 34 33 33 33 32
34 32 34 34 34 33 33 35 36 39 35 32 35 32 29 33 31 30 33 32 34 35 38 35 33 32 32 32 33 34 33 33 33 34 32 33 34 35 33 32 32 33 34 34

GFSNW_sfc_dewp_003.txt.gz
Dewpoint
50 51 50 51 51 51 52 52 41 57 57 38 42 40 42 34 34 36 35 36 32 33 31 33 34 35 35 36 38 31 32 32 27 27 30 30 29 30 31 26 27 28 26 23
50 51 50 50 51 51 55 47 50 55 56 35 38 43 37 34 32 34 35 35 36 35 36 32 37 38 41 41 38 37 36 31 27 29 32 31 28 28 34 36 28 23 22 26
48 50 50 50 51 50 52 51 40 47 48 48 44 39 37 36 38 37 36 35 37 36 35 37 38 38 41 40 37 42 41 33 27 26 25 26 24 25 27 33 27 28 27 28
48 49 50 50 50 50 52 50 44 39 36 40 42 40 37 36 36 38 37 36 36 35 33 35 37 38 38 40 39 39 37 32 34 31 28 27 25 24 24 23 26 25 26 28
49 50 50 49 50 49 52 50 46 43 40 37 40 39 35 36 35 35 35 34 36 38 34 36 35 36 36 37 37 38 42 34 30 28 32 31 28 28 27 25 25 24 26 31
51 50 50 49 50 51 52 51 50 49 45 40 40 39 38 38 39 38 38 38 39 37 40 41 40 39 39 40 37 39 36 31 30 28 34 32 25 28 31 28 29 28 26 33
51 50 50 49 50 51 57 55 53 45 38 43 41 41 41 38 36 36 41 42 38 42 40 35 36 35 36 39 42 39 34 33 30 24 27 17 32 31 31 31 31 33 36 36
51 50 50 49 49 50 55 55 55 48 37 45 41 39 39 42 44 42 41 41 41 43 43 34 28 29 25 31 41 41 40 31 25 26 24 26 29 31 31 30 31 39 38 38
50 50 50 50 49 50 55 55 56 52 43 42 43 39 41 40 41 41 43 46 47 48 36 31 27 27 28 29 34 38 40 33 30 24 21 15 28 34 36 35 28 41 39 39
50 50 50 50 49 50 54 55 56 55 46 46 46 42 42 45 43 41 43 42 42 46 36 32 32 28 33 29 28 27 28 27 24 28 17 26 34 35 36 27 28 42 41 39
50 50 49 50 50 49 53 55 55 55 47 47 50 49 42 44 45 38 43 39 41 36 33 33 32 30 31 30 34 32 29 27 29 28 24 21 36 35 29 36 41 42 41 39
50 50 49 50 50 49 51 55 55 57 52 50 52 51 50 47 47 46 44 38 45 43 37 36 37 32 34 30 25 35 29 34 31 31 29 34 38 37 44 44 42 41 40 40
50 50 50 50 50 50 51 55 56 57 49 48 48 48 51 51 50 51 44 44 46 47 46 39 38 34 37 31 34 30 34 37 32 32 36 35 40 44 44 43 42 42 41 40
50 50 50 49 50 50 51 55 56 54 47 36 46 49 49 50 50 50 51 49 50 49 44 38 36 32 40 34 34 32 35 37 33 33 36 39 42 43 43 42 42 42 40 40
48 48 48 48 49 50 52 56 55 55 50 38 42 48 49 49 50 50 51 50 49 45 38 36 34 35 37 35 34 33 39 35 33 32 39 40 41 43 42 41 40 41 41 32
48 48 48 49 49 49 54 50 55 52 56 46 37 48 47 48 48 48 49 49 49 48 40 35 41 46 38 34 33 39 40 39 38 37 43 43 43 42 41 39 35 30 28 26
47 48 48 49 49 53 50 48 50 49 53 42 38 37 44 46 49 48 49 49 48 46 41 36 36 39 42 35 35 39 40 37 38 44 43 41 40 39 39 33 30 30 23 23
47 48 49 49 49 49 50 52 50 50 51 45 38 37 39 47 39 39 45 41 44 45 42 41 37 39 35 32 39 39 39 39 42 41 41 39 41 39 32 28 23 21 22 24
48 49 49 52 50 45 49 49 49 54 49 37 36 35 34 44 41 40 39 42 36 42 36 38 40 36 36 38 40 39 37 39 39 39 39 39 34 27 25 22 22 23 25 25
49 49 47 40 44 48 49 49 43 41 41 42 36 41 37 42 36 35 36 35 35 34 36 39 34 36 39 39 38 39 39 40 40 37 34 32 29 25 23 24 26 27 27 27
46 41 38 44 47 48 43 38 37 38 36 40 40 38 37 41 36 35 36 34 34 32 32 34 32 31 36 38 39 39 39 39 38 36 33 28 25 25 27 28 29 28 27 27
45 44 45 44 41 37 37 35 35 35 36 36 36 38 39 38 42 35 34 34 33 30 35 32 28 32 37 38 38 37 35 29 26 25 25 26 28 30 28 28 28 27 28 27
43 39 35 37 33 32 32 31 32 33 33 34 34 33 35 36 37 33 33 32 31 34 32 29 28 34 37 38 29 26 27 28 28 27 28 27 26 27 25 26 25 27 30 30
35 34 32 32 31 32 31 32 32 33 33 33 34 33 34 33 33 32 31 31 32 28 25 22 33 37 38 36 29 25 25 26 26 26 27 26 27 25 23 24 24 22 24 27
34 34 30 31 32 32 32 32 33 34 35 34 33 33 34 32 31 31 30 28 26 28 28 31 33 34 34 31 30 27 25 27 28 28 27 26 25 24 27 27 28 31 31 30
34 32 31 32 32 32 32 32 32 36 34 35 34 32 32 30 30 28 28 27 26 30 32 32 32 30 29 29 29 28 30 30 28 29 29 28 26 25 28 30 32 31 31 31
31 30 32 32 32 32 32 33 34 37 34 32 32 29 27 30 28 28 32 29 32 33 32 32 31 30 30 30 31 31 31 30 30 30 30 28 27 27 31 30 30 28 28 29

GFSNW_sfc_dewp_006.txt.gz
Dewpoint
51 50 50 51 51 51 51 49 39 53 43 27 40 38 40 35 32 35 35 36 36 30 33 36 36 35 36 39 39 29 34 30 25 27 29 30 29 30 30 24 26 26 24 23
50 50 50 50 50 50 51 45 47 53 41 25 30 41 37 34 33 33 34 35 37 37 34 34 38 37 41 37 36 35 33 28 25 28 32 30 27 29 35 31 26 23 20 21
48 50 50 50 50 50 52 48 38 43 47 43 39 38 36 36 37 36 36 34 36 35 35 39 37 38 40 37 35 41 39 34 26 26 26 27 22 25 32 30 25 25 25 24
48 50 50 50 50 49 49 49 39 37 33 36 41 40 37 36 34 36 35 33 36 34 33 36 37 38 38 37 38 38 36 30 31 28 30 28 26 26 26 25 28 25 26 28
50 50 49 50 50 50 48 46 43 42 33 36 39 39 37 35 36 35 35 34 38 37 34 35 35 36 36 35 36 39 39 29 29 27 34 34 27 27 28 27 25 25 32 33
50 50 50 50 50 50 48 50 49 43 41 35 37 37 36 37 37 37 38 39 38 37 40 40 39 40 41 39 37 36 34 29 26 25 32 30 22 27 30 28 32 28 25 34
50 50 49 49 50 52 56 54 50 42 35 39 37 41 39 37 39 39 41 40 37 41 43 36 33 33 39 41 39 36 33 32 26 20 21 11 29 32 31 35 36 36 35 35
50 50 49 49 49 50 54 53 51 42 33 41 39 40 42 42 43 42 43 43 41 41 37 29 26 27 28 32 39 42 36 27 26 18 21 19 25 30 30 27 35 38 37 37
49 49 49 49 49 50 53 53 54 45 41 39 45 42 41 38 38 39 42 45 47 42 32 28 26 20 23 28 35 37 37 29 25 26 12 8 23 34 35 33 28 39 39 37
49 50 49 50 49 50 54 52 54 50 43 44 44 40 41 43 40 38 41 41 40 39 27 28 30 28 31 28 27 26 26 24 23 23 15 23 28 34 36 26 25 40 39 38
49 49 49 49 49 49 54 52 54 50 45 46 50 48 43 44 42 37 41 38 38 35 27 25 31 30 29 28 31 30 27 25 23 23 18 20 33 34 28 32 39 41 40 39
49 49 49 49 49 49 53 51 55 55 48 48 50 50 50 48 44 45 42 36 41 38 34 35 37 31 33 25 26 34 26 29 28 30 29 32 35 35 39 42 41 41 39 39
49 49 49 49 50 50 52 54 54 52 44 44 46 47 50 50 50 48 41 42 46 45 40 36 36 26 34 30 32 30 33 37 32 32 35 36 37 43 44 43 42 42 40 40
48 48 48 48 48 50 53 53 54 48 43 36 42 49 48 49 50 50 47 47 48 45 40 36 35 28 37 30 31 31 32 36 33 32 35 40 42 42 43 42 42 41 41 40
48 48 49 49 49 49 53 54 52 53 45 37 42 47 48 48 50 50 49 48 47 42 37 33 33 30 36 35 32 32 37 33 32 31 35 36 38 43 42 41 41 42 40 25
48 48 49 50 50 50 53 48 52 51 52 43 35 44 45 47 48 49 48 48 47 44 39 36 38 43 35 34 36 39 40 40 38 37 40 42 42 43 42 41 40 35 27 23
48 48 49 49 49 50 48 43 49 48 49 40 38 35 42 46 47 45 46 47 46 44 39 36 37 36 40 34 31 37 39 40 39 42 43 41 42 41 41 31 28 27 23 24
48 49 50 50 49 50 49 50 49 50 47 41 36 35 36 45 37 38 43 39 43 43 40 38 36 37 34 33 39 40 40 40 41 44 41 41 41 36 30 24 23 23 23 24
48 49 50 48 47 45 50 48 48 52 46 37 34 34 33 41 40 38 36 41 34 40 36 36 38 35 36 37 38 40 40 40 41 41 39 40 38 25 23 23 25 24 25 24
49 47 43 41 43 47 49 46 43 42 41 41 34 38 36 41 34 34 35 34 34 34 36 39 34 36 39 39 41 39 39 40 40 37 35 32 29 27 26 26 27 26 26 25
46 42 39 44 47 45 41 37 36 38 36 39 38 36 37 37 35 35 35 34 33 32 30 35 30 32 34 37 38 39 40 40 36 32 32 30 30 28 29 30 28 27 25 25
45 44 45 43 40 37 36 35 35 35 35 35 35 36 39 37 39 35 34 33 33 30 34 33 30 30 36 37 34 31 28 29 30 31 31 30 27 28 26 25 26 26 26 24
43 39 36 38 33 33 35 33 33 33 33 34 34 34 34 36 37 33 33 32 31 34 32 30 30 36 30 27 28 28 30 31 29 27 28 27 25 26 24 24 23 22 26 28
36 34 32 33 30 31 31 32 32 33 33 33 33 33 33 33 33 32 31 32 32 29 26 23 32 37 33 32 31 28 28 29 28 27 27 26 26 26 24 23 22 19 23 26
33 32 29 29 30 32 32 32 33 33 35 34 33 33 34 32 31 31 30 27 25 27 27 30 32 35 34 31 28 26 26 28 28 28 27 25 24 22 25 24 23 28 30 30
33 32 30 32 31 32 32 32 32 35 34 34 33 32 31 29 30 27 27 26 25 28 32 31 33 32 29 29 27 27 29 29 28 28 28 27 25 24 26 27 27 26 26 26
30 30 32 32 32 32 32 33 33 37 33 31 32 25 25 30 27 27 31 28 31 33 33 32 31 29 30 30 31 30 30 30 30 30 30 28 26 23 25 27 29 27 27 25

GFSNW_sfc_dewp_009.txt.gz
Dewpoint
51 51 51 51 51 52 50 44 30 49 39 29 39 35 40 39 31 34 35 35 32 29 34 35 34 34 36 38 38 29 34 29 25 26 29 31 28 29 27 21 24 25 22 22
50 50 50 51 51 52 50 42 48 53 37 27 29 36 40 35 32 32 34 34 36 36 36 33 37 37 39 35 35 33 32 27 25 28 30 29 27 31 32 28 26 26 18 19
50 50 50 50 50 51 50 43 39 42 44 36 29 33 35 34 36 36 35 34 36 35 36 38 36 37 39 36 34 41 38 32 25 24 25 26 21 25 30 27 23 23 23 23
49 49 50 50 50 50 50 45 36 38 34 37 43 38 37 34 32 35 34 33 35 34 33 35 36 38 36 35 39 39 34 27 30 29 30 28 26 24 29 28 27 25 25 26
49 50 50 50 50 50 47 47 39 40 31 34 39 39 37 34 35 34 34 33 38 36 33 33 35 34 33 32 38 39 34 29 28 27 32 32 25 25 25 25 25 28 30 32
50 50 49 50 50 49 45 48 49 40 38 36 36 36 37 36 36 38 38 38 36 34 38 39 40 40 39 38 37 34 31 29 21 17 29 27 17 24 28 27 30 29 29 32
50 50 49 50 50 51 51 52 47 41 34 33 34 39 38 38 36 38 40 39 37 38 39 36 34 34 40 41 40 35 32 28 23 19 19 8 21 29 31 30 35 35 34 35
50 49 49 49 50 51 53 53 47 41 33 38 39 40 41 41 42 41 42 42 41 40 32 30 28 27 27 31 39 38 34 27 26 16 18 17 19 31 34 30 30 36 35 35
49 49 49 49 49 51 52 53 50 43 42 39 42 41 40 36 37 37 40 45 44 38 30 28 20 18 22 27 34 37 33 27 23 24 9 5 17 32 34 32 26 38 37 36
49 49 49 49 49 52 51 52 52 47 41 44 43 39 39 41 39 36 40 40 39 36 26 22 27 27 28 27 27 25 26 22 18 19 12 21 25 33 34 25 23 39 38 37
49 49 49 49 49 50 52 52 53 47 44 46 48 46 43 43 41 37 40 38 37 31 26 23 26 26 29 27 30 30 29 26 21 24 18 18 31 33 29 32 36 39 39 38
50 49 48 49 50 50 52 51 54 52 47 47 49 49 49 47 42 43 41 38 38 37 31 29 32 30 32 26 25 33 26 27 27 27 27 31 32 35 36 39 39 40 39 39
47 48 48 48 49 51 53 53 52 47 43 44 46 46 49 49 49 47 40 40 44 41 38 37 32 24 29 29 30 29 33 35 30 30 32 34 34 38 42 42 41 41 41 40
48 48 48 48 49 51 52 52 51 45 40 36 42 49 47 49 50 50 45 46 45 42 39 35 33 26 35 28 30 30 32 35 33 32 34 37 39 41 42 43 42 41 41 40
48 49 49 49 50 51 52 51 50 51 42 36 38 46 47 48 50 49 48 46 44 40 36 33 32 30 34 34 32 32 36 32 30 29 33 36 34 40 43 42 42 42 39 33
48 49 49 49 49 51 47 42 50 50 49 41 36 43 44 47 49 48 48 48 45 42 38 34 36 38 34 34 34 37 38 39 34 33 36 37 39 41 43 42 42 42 29 25
48 49 49 48 49 50 44 37 47 48 47 40 38 35 41 44 46 44 45 45 45 43 39 35 37 35 39 34 33 35 38 39 40 41 42 39 41 41 42 35 32 29 24 25
48 50 49 49 49 49 49 49 47 48 43 39 35 34 36 43 38 38 43 38 42 42 40 38 37 36 35 34 38 39 39 39 39 41 42 41 42 39 28 24 23 24 24 25
49 49 48 48 47 46 48 48 47 48 44 37 34 33 32 41 39 37 37 40 34 40 37 36 37 34 35 38 39 39 39 39 39 42 40 40 34 25 23 25 27 27 26 25
48 46 41 40 44 47 47 45 41 39 41 39 33 37 36 41 34 34 34 34 36 34 36 39 34 36 38 38 38 40 40 39 41 36 33 28 27 31 34 34 33 28 27 27
44 42 39 45 46 43 40 37 36 38 36 39 37 36 36 40 35 35 35 34 33 32 31 35 33 31 33 36 36 34 37 35 32 33 33 34 34 33 32 30 30 29 26 25
43 43 44 41 37 36 35 34 34 34 34 35 35 36 39 37 38 36 35 33 32 30 34 33 29 29 28 28 31 32 33 33 33 34 33 33 34 34 33 30 27 27 27 24
42 39 36 38 34 33 34 33 32 33 33 34 34 34 34 36 37 33 33 32 31 33 31 30 31 30 31 32 33 33 34 35 36 36 35 31 26 26 27 27 26 25 26 28
36 34 32 33 30 31 31 32 32 32 32 33 33 33 33 33 33 32 31 32 31 29 24 22 32 34 35 34 34 32 30 32 31 27 27 28 28 27 25 25 23 21 24 26
33 32 28 28 30 32 32 32 33 33 34 34 33 33 34 32 31 31 29 27 25 25 24 30 32 34 34 29 26 27 28 29 28 28 27 26 25 25 26 25 25 28 28 25
32 31 30 31 31 32 32 32 32 35 33 33 33 32 30 29 29 26 22 21 21 28 31 32 33 30 31 32 31 30 31 30 28 29 29 28 25 25 27 27 25 24 23 23
30 30 32 32 32 32 32 33 33 36 33 31 31 25 23 30 25 24 30 27 30 32 33 32 32 30 32 33 32 30 30 30 29 29 28 28 26 23 24 25 28 26 26 23

GFSNW_sfc_dewp_012.txt.gz
Dewpoint
51 51 50 51 52 52 52 39 31 46 39 30 36 32 39 41 31 35 35 32 30 28 34 33 33 32 33 36 37 29 33 29 25 25 29 32 28 28 25 20 19 24 21 20
51 50 51 51 51 52 49 41 48 52 38 26 28 33 38 38 31 33 33 33 35 37 35 32 35 36 37 33 34 31 30 27 25 25 26 27 27 32 29 27 27 25 19 20
50 51 50 51 51 52 48 44 41 43 40 36 29 30 32 33 36 35 34 35 36 36 36 37 35 36 37 35 36 42 36 30 24 22 23 26 23 28 28 25 22 23 23 20
49 50 50 51 51 51 50 41 39 41 35 37 33 32 35 33 33 34 34 33 34 34 33 34 35 36 34 35 40 39 31 26 28 30 30 28 25 23 29 25 25 22 23 23
48 49 50 50 50 50 47 45 37 35 35 41 39 37 35 33 34 34 32 32 37 34 32 32 34 34 31 27 39 36 32 26 26 28 31 30 26 24 25 27 26 28 28 27
48 50 50 50 50 49 45 48 46 37 36 36 37 37 37 36 36 38 38 36 35 33 37 39 39 38 37 37 36 32 27 27 20 13 27 23 16 22 24 25 26 26 26 27
50 50 50 50 50 49 48 49 46 39 30 32 35 38 38 37 35 36 39 38 35 38 40 37 34 35 39 40 39 34 29 26 21 18 18 6 19 27 28 28 30 32 32 33
50 49 49 50 50 50 52 51 45 40 30 33 36 39 40 41 42 40 41 43 40 38 32 31 29 28 27 30 38 34 30 25 23 16 17 16 16 30 32 29 26 35 34 35
49 49 49 49 50 50 52 52 48 44 38 36 39 40 39 35 36 35 39 45 41 35 29 26 22 22 24 25 32 36 31 26 22 18 9 5 18 27 33 30 26 36 36 35
49 49 49 49 50 51 52 51 50 46 42 44 41 38 38 39 37 36 39 39 37 34 25 21 22 21 26 24 26 25 27 25 16 19 11 19 23 32 33 25 25 37 36 36
49 49 49 49 50 51 52 52 52 46 44 45 47 45 41 42 40 36 40 37 36 30 25 23 25 22 28 27 28 30 29 25 20 21 14 14 28 32 28 32 33 37 37 37
47 47 48 49 50 51 53 52 54 51 47 46 48 48 48 46 41 42 40 37 37 36 30 24 30 30 31 24 24 32 26 26 25 24 24 27 31 33 34 36 34 38 38 39
48 48 48 49 51 51 53 52 50 46 43 44 46 46 49 50 48 45 39 38 41 37 36 31 32 23 28 27 29 28 32 32 28 29 29 31 33 34 37 39 38 39 40 40
48 48 49 50 51 51 52 50 49 43 41 36 41 48 47 49 50 48 44 44 42 40 37 30 33 25 33 25 29 29 32 34 31 30 33 34 35 38 38 40 41 41 41 40
48 49 49 50 51 51 52 50 49 49 40 36 38 45 45 48 49 47 46 43 42 39 34 30 31 29 33 33 32 31 35 32 30 29 31 31 31 34 40 41 42 42 40 39
48 48 49 49 50 50 41 40 48 50 46 41 36 42 43 46 47 47 47 46 43 41 37 32 34 36 33 34 30 35 35 36 34 31 33 35 35 39 41 41 42 42 37 30
49 49 49 49 49 49 40 37 46 48 46 40 37 36 40 42 45 43 44 45 43 41 38 34 30 36 36 34 28 34 36 38 38 39 39 38 39 40 41 41 38 29 25 25
49 48 48 49 49 49 48 49 48 47 41 39 33 34 35 42 37 37 43 38 41 41 39 37 35 37 35 34 37 38 39 40 39 39 41 39 40 31 26 26 25 25 26 28
48 47 47 48 47 46 48 47 47 47 43 35 34 32 31 41 38 37 38 40 34 40 36 36 38 34 34 36 37 37 38 38 39 40 40 35 27 24 26 28 31 32 32 32
46 46 41 40 44 47 46 43 40 39 39 40 34 37 36 42 34 34 34 35 36 34 36 39 34 35 35 32 33 33 36 39 39 34 28 27 31 34 34 34 33 32 32 34
43 40 39 45 45 43 37 35 34 37 36 38 36 36 35 39 36 35 34 34 33 32 30 34 32 32 30 30 32 33 34 33 33 34 34 35 34 34 34 33 33 32 31 27
42 44 43 40 38 36 33 33 34 34 31 34 35 36 38 36 37 36 34 34 32 31 34 33 29 28 30 32 33 35 35 36 36 36 36 36 36 36 34 31 29 28 28 26
40 37 34 36 34 34 32 31 32 33 33 34 34 34 34 36 36 34 33 32 31 33 31 30 30 33 35 36 35 36 37 36 36 36 35 31 29 29 28 28 27 27 27 28
36 35 33 33 32 31 30 32 32 32 32 33 33 33 33 32 33 32 32 32 31 29 26 24 31 34 34 34 34 33 30 28 27 27 28 28 28 27 27 26 25 24 25 26
32 32 28 28 31 32 32 32 33 33 34 33 33 33 34 32 31 31 30 24 20 20 17 29 32 33 32 28 29 32 31 27 27 27 27 26 26 25 26 26 25 27 26 24
32 31 30 31 31 31 32 32 32 35 33 33 33 32 30 29 30 24 22 22 18 26 31 32 32 32 32 33 33 32 32 30 28 29 28 27 22 22 25 25 23 23 24 23
30 30 32 32 32 32 32 33 33 36 33 31 31 24 24 29 21 21 26 21 28 32 32 33 33 33 33 33 33 30 30 30 29 29 28 27 24 23 25 27 28 27 26 20

GFSNW_sfc_dewp_015.txt.gz
Dewpoint
51 51 52 52 52 52 52 43 36 48 44 35 36 34 37 41 38 36 36 32 32 31 34 33 32 32 33 36 38 32 32 32 30 25 29 32 29 28 27 26 21 25 26 21
50 51 51 51 51 52 50 39 48 53 43 31 34 34 38 40 34 35 35 36 37 38 36 33 35 36 38 36 35 34 33 31 29 26 26 28 28 31 28 28 30 27 32 21
50 51 50 51 51 52 49 46 43 46 40 36 32 32 34 35 37 37 36 36 38 38 37 38 36 36 37 39 38 42 37 30 29 26 23 27 26 30 27 27 28 25 28 24
51 50 51 51 51 52 49 43 41 45 38 35 32 32 34 34 34 37 36 36 36 36 35 35 36 36 34 37 41 39 33 30 29 30 30 28 25 26 28 24 26 27 25 24
50 50 50 50 51 51 48 40 39 37 38 39 34 34 36 34 35 37 35 35 38 38 35 34 35 35 32 31 39 35 32 30 28 30 30 29 27 26 26 28 28 26 27 27
49 49 50 50 50 51 47 48 44 39 35 39 35 36 35 35 38 40 39 37 37 36 39 39 38 38 38 37 37 33 30 31 25 21 26 23 24 25 25 26 28 29 28 28
49 49 50 50 50 50 48 49 44 39 32 36 34 39 39 37 37 37 40 39 38 40 42 39 37 37 39 38 35 34 30 27 24 27 23 20 22 29 27 27 27 27 29 31
50 50 49 50 50 50 52 51 45 38 33 34 35 39 41 41 42 42 42 43 41 42 36 36 32 32 32 34 34 31 30 29 25 28 21 20 18 23 30 31 25 32 30 33
49 49 49 50 50 50 52 52 48 43 37 35 37 41 40 38 38 39 42 43 41 37 33 32 30 29 28 26 34 35 31 29 30 24 23 19 22 21 35 31 29 32 35 36
49 49 49 49 49 50 52 53 50 47 41 44 42 40 40 40 39 39 40 39 40 36 32 31 30 28 27 24 27 30 32 30 27 21 28 24 24 30 33 27 28 35 37 37
49 49 49 49 49 50 52 52 53 48 45 47 49 44 41 41 42 39 41 40 39 35 33 34 30 33 31 29 29 32 30 29 28 23 23 23 28 33 33 36 36 36 38 38
47 48 49 49 49 49 52 52 53 51 48 47 50 50 50 49 43 43 42 41 39 39 35 32 32 33 32 29 30 32 29 31 31 27 29 31 31 37 36 36 36 37 39 39
47 48 50 50 49 50 52 53 52 48 46 46 47 47 50 50 50 48 41 39 42 38 38 35 34 33 34 32 31 32 33 32 32 32 31 30 32 34 35 36 38 38 39 40
48 49 50 50 51 51 52 51 50 46 42 37 43 47 47 49 50 48 46 43 42 40 38 35 34 34 34 32 33 34 34 34 32 32 33 34 33 36 38 38 40 41 41 41
49 50 50 50 51 51 52 51 51 49 44 39 40 45 45 48 48 45 44 43 42 40 38 35 36 34 35 34 34 33 35 33 35 34 34 34 34 33 37 40 40 42 42 41
49 50 51 50 50 50 49 46 49 49 47 43 38 42 43 46 47 46 47 46 43 42 39 36 35 37 37 35 34 35 35 36 35 34 35 35 37 36 39 40 42 42 41 36
48 49 50 50 49 50 42 40 46 46 46 41 37 38 41 42 45 44 45 47 43 43 39 36 36 38 37 35 33 37 39 39 39 39 40 39 40 40 40 35 28 28 27 27
48 48 48 48 49 49 48 49 47 47 41 39 35 35 38 43 40 39 43 40 43 42 39 38 37 38 38 36 37 36 36 37 40 40 42 40 31 28 27 28 30 32 34 35
47 47 47 48 47 46 48 47 46 46 43 36 33 34 34 42 39 38 39 41 37 40 38 37 39 35 33 31 32 32 33 35 37 33 28 29 29 30 31 33 35 34 34 35
46 46 42 40 45 46 46 43 40 39 39 40 34 38 35 41 35 35 36 37 35 35 37 39 35 35 30 32 33 34 34 34 37 32 31 33 34 34 35 35 35 34 34 35
44 42 40 45 45 43 38 35 35 36 34 38 37 36 36 39 38 36 36 35 34 33 34 35 34 31 28 33 34 35 35 35 35 35 35 36 36 34 35 35 35 34 34 32
43 44 43 41 39 35 34 34 35 33 33 35 35 36 39 37 39 37 35 34 34 32 36 33 30 28 32 34 35 35 35 35 35 35 35 36 35 36 35 33 32 30 29 29
42 38 36 37 35 32 27 31 33 32 33 34 34 34 35 37 36 34 35 33 32 34 32 30 30 34 35 35 36 35 34 34 32 32 31 30 28 29 30 30 30 29 29 29
34 34 32 30 33 31 32 33 33 33 33 33 34 33 34 33 34 33 33 32 32 30 28 27 31 34 34 35 35 32 28 27 28 27 28 28 28 28 27 27 27 26 29 28
33 32 28 29 31 32 32 32 33 33 34 34 34 34 35 33 32 32 31 27 26 26 24 30 32 33 32 32 33 29 28 28 30 28 29 27 26 25 28 27 27 28 28 27
32 32 30 32 32 32 32 32 32 35 33 34 34 32 32 30 31 29 28 25 21 27 31 32 32 31 33 34 34 33 32 31 30 30 29 28 27 27 28 28 28 27 27 26
30 31 32 32 32 32 32 33 33 35 34 32 32 30 27 30 27 25 28 25 28 32 32 33 34 33 33 34 35 33 31 30 29 29 29 28 27 26 27 26 26 27 28 26

GFSNW_sfc_dewp_018.txt.gz
Dewpoint
52 52 51 51 52 52 51 48 39 56 54 43 39 34 31 40 37 38 32 31 29 28 30 29 27 26 30 36 34 30 32 32 32 28 30 32 29 27 24 22 21 29 30 15
51 52 51 51 51 52 50 42 47 52 47 38 44 35 32 38 33 32 34 31 32 35 34 32 34 34 35 35 34 34 34 32 30 27 29 30 29 29 26 29 32 26 32 16
51 52 51 51 51 51 49 43 46 48 41 38 35 32 32 30 37 34 35 36 38 37 35 37 36 36 35 37 36 41 37 32 30 28 23 27 28 29 27 25 26 21 25 13
51 51 51 51 51 51 50 46 42 43 44 37 35 34 31 29 33 35 36 35 35 34 36 35 36 36 34 37 40 39 35 31 30 27 28 27 25 26 27 23 24 25 17 18
51 50 50 51 51 51 49 43 43 43 39 36 33 33 31 27 34 35 33 35 36 37 37 33 36 35 33 32 38 36 34 33 31 30 30 28 26 25 25 25 24 25 22 23
51 50 50 50 50 51 46 50 45 40 40 35 34 32 31 30 39 40 37 37 38 38 38 40 39 39 37 35 37 37 35 35 29 23 27 27 32 28 24 24 27 27 26 25
50 50 50 50 50 51 47 51 45 43 41 39 33 30 31 37 37 39 39 39 39 41 42 41 40 39 37 36 35 34 34 32 31 32 29 30 17 25 24 24 24 23 25 24
50 49 49 50 50 51 53 53 46 43 42 39 34 33 31 40 41 42 41 42 42 43 40 40 36 40 40 38 34 32 31 33 32 36 24 21 11 19 22 26 19 24 24 24
49 48 49 50 50 51 56 56 52 47 45 41 34 34 40 43 43 43 42 43 43 38 43 41 37 33 30 30 34 35 31 33 34 31 35 32 23 25 34 32 25 27 31 33
48 49 49 50 50 50 55 55 55 48 44 42 42 38 40 43 43 43 42 41 42 38 42 43 41 35 29 26 30 35 36 36 36 32 36 28 24 25 34 24 24 33 35 36
49 49 49 49 49 50 54 56 56 52 48 45 48 44 43 43 44 44 43 41 42 42 44 45 39 41 33 30 28 32 32 34 36 31 35 30 26 33 32 35 37 36 36 38
48 49 49 49 49 50 53 54 55 54 50 49 52 51 50 48 45 45 44 43 42 43 44 43 43 38 36 37 34 32 31 34 34 30 31 29 31 34 36 37 38 38 38 37
48 48 49 49 49 50 52 54 56 54 53 49 49 48 50 51 51 50 43 44 44 42 44 46 46 38 41 37 36 35 33 33 35 33 28 30 31 33 33 34 36 36 36 37
48 48 49 49 49 50 52 55 54 55 51 44 49 49 49 50 51 49 48 47 45 43 43 47 42 42 38 41 37 39 35 34 33 33 33 32 31 33 35 35 37 39 39 40
49 49 49 49 49 51 54 54 53 54 50 46 49 48 48 49 47 46 46 46 44 44 46 43 45 41 41 41 40 38 34 32 36 35 33 35 34 35 38 39 39 41 42 42
49 49 50 50 50 51 55 51 53 51 51 51 47 47 46 48 48 48 48 46 46 45 45 45 40 39 42 40 38 38 37 39 39 36 38 39 40 40 41 42 38 36 37 36
49 49 49 48 49 54 49 46 50 48 50 50 45 46 46 46 47 47 48 49 48 48 45 42 43 43 41 40 40 39 37 37 39 41 42 41 37 36 34 33 34 35 33 33
49 49 49 49 49 50 52 51 49 48 45 48 44 42 45 46 45 44 45 46 48 45 42 41 41 41 43 40 37 35 35 36 40 35 39 36 33 33 33 35 35 36 36 36
48 49 49 53 51 52 52 47 47 50 48 44 45 43 40 44 41 42 44 45 41 43 43 42 42 38 38 33 33 34 35 36 37 34 34 34 33 34 36 36 36 35 35 34
47 50 49 48 49 46 47 46 47 47 46 44 37 41 39 42 41 40 43 43 40 37 41 41 40 35 31 33 34 34 35 35 37 35 34 34 34 35 34 34 33 31 28 32
50 48 46 50 46 47 43 41 41 41 40 41 39 40 39 42 41 39 41 39 39 36 38 39 37 33 30 34 35 36 36 36 36 37 37 36 34 33 32 32 34 36 34 32
48 48 47 46 43 42 38 37 39 39 37 38 39 39 41 41 42 41 39 37 37 34 38 36 34 31 34 35 35 36 37 36 35 34 34 33 32 33 33 30 30 32 31 33
47 44 40 41 38 35 36 32 35 34 36 36 36 35 40 41 41 38 39 35 35 37 34 32 33 33 35 35 34 33 33 33 31 30 28 26 28 31 34 33 33 34 32 30
40 38 34 35 34 34 34 35 34 34 34 36 39 36 40 37 37 37 36 33 34 32 31 31 32 34 34 36 34 30 27 30 29 29 31 34 32 33 33 32 32 32 32 32
35 37 30 31 32 33 33 33 34 35 36 36 38 37 39 35 34 34 33 32 30 31 31 32 33 34 34 36 34 28 29 33 31 32 32 33 33 33 32 33 32 31 31 30
35 34 33 33 33 32 33 33 33 36 36 37 36 33 33 32 35 33 33 32 29 32 34 33 33 34 35 35 32 33 33 32 31 31 31 32 32 31 30 30 28 27 28 28
34 32 33 33 33 32 32 33 33 36 34 32 34 33 31 34 32 31 33 32 34 34 34 35 34 34 35 36 36 36 32 31 31 31 30 30 30 28 26 24 21 23 25 26

GFSNW_sfc_dewp_021.txt.gz
Dewpoint
49 51 52 53 52 51 50 48 40 55 58 40 43 39 33 30 31 37 29 29 22 22 23 24 21 19 21 30 31 26 27 25 29 25 29 29 28 26 26 28 22 26 30 17
48 50 51 52 51 51 48 46 46 58 53 41 48 38 32 29 32 32 32 26 26 25 24 24 24 24 37 36 34 28 33 26 27 25 28 29 25 24 25 24 31 23 29 19
47 49 51 52 51 51 50 43 43 50 50 43 41 37 31 30 34 31 30 26 30 31 30 31 31 32 35 38 34 40 37 29 27 26 25 25 28 24 24 26 28 26 24 16
48 49 51 52 51 50 49 43 40 43 44 42 42 36 32 28 30 34 34 33 30 29 30 32 32 34 35 37 40 36 36 31 29 26 27 25 23 21 23 22 23 26 21 13
48 49 49 51 51 50 49 41 38 40 42 42 38 36 32 26 29 33 33 31 29 29 31 32 29 34 35 34 38 37 35 33 33 32 28 27 24 22 19 19 20 18 17 17
48 48 48 51 51 50 47 49 45 42 44 42 37 37 31 28 34 40 34 32 33 34 37 40 40 39 37 35 38 38 37 39 32 23 26 27 31 30 24 19 20 22 24 22
48 48 47 50 50 50 47 49 46 44 43 41 36 32 31 29 35 37 37 37 37 42 41 41 40 37 35 35 36 37 39 36 34 30 31 28 15 21 18 21 19 18 18 19
48 47 47 50 50 50 51 52 47 41 47 38 33 30 30 31 39 40 40 42 42 43 40 40 38 40 40 36 32 30 32 35 33 37 23 20 17 15 19 21 19 20 22 20
48 47 50 49 50 50 54 59 54 45 45 41 31 30 30 42 43 44 43 44 44 42 45 43 33 30 30 33 35 33 31 37 34 31 34 31 27 24 30 28 22 24 24 25
48 48 49 49 49 50 54 58 59 42 36 35 35 33 32 36 41 42 44 44 43 42 46 44 39 34 31 29 31 36 36 38 37 33 36 30 23 24 31 23 30 32 32 30
48 49 49 49 49 50 53 57 58 44 38 42 43 37 37 36 39 45 44 42 44 45 44 46 41 42 37 33 29 34 33 35 37 36 36 30 24 29 28 37 34 32 34 34
48 49 49 49 49 50 52 58 56 55 46 50 51 52 51 47 42 43 46 40 43 44 44 46 48 42 39 37 34 31 32 34 36 30 32 31 29 29 30 34 35 35 35 34
48 48 49 49 49 50 52 58 56 53 53 49 48 48 50 51 52 54 44 46 44 45 49 50 50 42 44 40 38 36 33 33 34 32 25 26 28 30 31 32 34 35 35 37
48 48 49 49 49 50 51 55 57 52 52 47 49 50 49 50 51 50 51 49 49 48 47 52 45 44 41 45 39 38 35 33 31 32 30 28 29 32 35 37 39 39 39 40
48 48 49 49 49 50 54 55 55 56 48 48 49 49 49 48 48 48 48 48 47 46 48 45 48 44 44 45 42 40 34 30 37 36 36 38 35 38 42 41 41 41 41 41
48 49 49 49 49 50 52 53 53 51 54 52 48 49 48 48 48 47 46 47 46 45 47 48 43 41 44 43 38 37 38 39 39 37 41 41 41 38 37 37 36 35 35 34
48 48 49 49 49 52 48 43 51 49 54 52 47 47 48 48 48 48 49 50 49 47 48 47 47 43 43 43 39 40 37 37 39 39 41 41 37 36 37 37 37 38 37 36
48 48 48 49 49 49 51 49 48 51 49 49 46 43 48 48 49 48 48 50 50 47 44 45 46 43 47 41 38 37 36 37 38 36 37 37 36 37 36 37 36 35 34 34
48 49 50 53 54 53 52 46 49 53 50 47 48 42 40 46 44 46 47 48 45 44 43 44 45 40 40 37 35 35 36 37 37 36 36 36 37 35 34 34 34 32 32 32
48 50 47 49 51 47 49 48 50 48 48 46 41 45 42 44 44 42 44 45 42 39 42 42 42 39 34 34 35 36 36 37 37 36 35 35 34 33 33 33 32 30 33 33
51 51 48 50 47 49 47 44 44 43 43 42 41 43 42 44 42 40 43 40 41 37 39 39 39 37 33 35 35 37 37 37 37 37 36 34 33 32 31 32 33 31 30 30
50 51 49 49 46 44 41 39 41 40 38 40 40 40 41 43 44 41 41 37 39 35 39 38 34 33 34 35 36 36 36 35 34 34 32 32 31 31 30 30 31 33 33 33
49 47 42 42 42 37 35 32 36 36 38 38 39 37 42 41 42 41 40 36 37 39 37 33 34 34 35 35 35 34 33 33 32 30 28 28 30 33 35 32 33 34 33 32
42 41 35 35 36 34 34 35 35 34 35 39 41 39 40 40 38 39 34 34 38 34 32 33 33 34 35 35 35 32 30 33 29 30 31 33 33 33 33 33 33 33 32 30
37 37 32 32 33 33 33 34 35 35 37 40 42 41 41 38 36 37 35 32 32 34 33 34 34 34 35 35 31 29 31 34 32 33 32 34 34 34 31 31 30 30 29 29
35 35 33 33 33 32 33 33 33 36 36 39 40 36 36 34 36 35 34 34 31 33 35 35 34 34 35 36 31 32 33 33 32 32 32 32 32 32 30 28 27 30 28 27
35 33 33 33 33 32 32 33 33 36 35 33 36 34 32 35 34 33 36 33 35 34 34 36 36 34 35 34 35 35 34 32 32 32 31 30 29 29 25 22 20 21 23 26

GFSNW_sfc_dewp_024.txt.gz
Dewpoint
48 48 50 51 53 52 50 47 39 53 57 41 38 41 37 35 32 27 29 26 20 20 23 21 18 17 20 24 25 25 25 26 34 22 24 26 25 27 23 37 28 35 36 24
47 48 49 51 52 52 50 42 45 56 53 35 41 41 37 33 31 29 31 28 26 22 23 22 22 22 37 36 31 30 31 29 30 22 25 27 25 23 21 27 38 33 34 27
45 47 47 50 52 52 49 41 42 52 53 38 39 40 35 32 33 27 29 28 26 24 23 24 24 26 36 37 34 41 41 28 25 29 23 27 29 25 21 23 36 34 29 19
43 47 47 49 51 52 50 45 41 46 45 43 40 41 35 31 29 28 30 28 23 28 29 26 29 29 36 37 39 35 34 30 27 24 23 25 27 23 21 20 24 27 27 20
45 46 47 48 51 51 49 42 40 45 41 42 41 41 38 31 27 30 31 31 26 30 30 29 29 29 36 34 38 35 35 36 37 36 29 27 26 24 23 19 18 19 18 19
46 46 46 48 50 51 48 46 49 44 42 41 41 41 38 34 33 33 30 31 31 31 34 37 40 41 39 35 39 38 39 43 38 33 27 27 28 31 24 21 20 21 23 25
46 46 47 49 50 51 47 48 47 45 41 39 40 40 38 32 32 37 34 35 36 41 41 42 40 38 37 38 38 38 43 41 40 37 33 27 19 20 18 19 18 16 14 18
46 47 47 47 48 50 50 55 54 49 43 40 38 39 37 33 33 37 36 43 43 45 42 42 39 44 40 37 32 32 37 41 38 37 30 25 21 19 20 20 20 22 22 22
46 47 46 46 47 47 50 54 55 56 45 43 38 36 37 38 44 43 43 44 47 45 50 48 37 35 32 32 33 30 32 42 42 35 35 31 31 25 27 25 27 27 27 29
46 47 47 47 47 47 48 53 54 55 47 43 41 36 37 38 45 44 44 44 44 45 49 42 44 39 31 34 35 36 39 41 37 36 37 36 26 26 29 28 34 33 33 33
46 46 47 47 46 47 50 49 53 54 50 42 43 39 37 43 45 46 46 44 44 51 46 46 46 44 41 38 31 36 36 38 38 40 35 32 25 28 32 39 40 36 35 36
46 47 47 47 49 49 50 48 52 56 56 50 54 52 50 47 43 49 48 44 44 47 46 47 50 40 39 41 38 29 35 38 41 36 38 36 31 32 32 36 36 37 38 36
47 47 48 48 49 49 50 50 53 59 55 50 47 48 51 52 53 56 46 47 46 47 52 53 52 40 47 39 43 41 33 34 40 38 27 27 29 30 31 34 38 37 38 39
48 47 48 49 49 49 50 50 54 57 52 46 50 50 49 50 50 51 52 51 54 54 53 54 43 43 45 47 43 46 38 34 32 34 32 31 31 37 40 41 41 41 42 41
48 48 49 49 49 50 52 53 55 57 48 47 49 49 49 48 49 49 50 53 51 51 50 43 50 49 48 48 47 45 35 33 41 41 38 39 39 40 40 39 37 37 36 34
48 48 49 49 50 50 52 52 54 55 53 52 47 49 47 47 48 47 49 50 50 49 50 49 47 44 48 43 42 35 38 39 39 38 40 41 40 38 37 37 37 37 37 37
48 48 49 49 49 54 52 46 50 50 56 52 46 45 48 48 49 49 49 49 49 48 49 49 48 44 45 43 42 38 37 37 39 39 41 39 38 37 38 37 36 36 35 34
48 48 49 49 49 50 50 50 49 49 49 52 44 40 46 48 50 48 50 51 50 48 45 47 48 44 50 44 39 37 37 38 38 37 38 38 38 37 37 36 34 33 32 32
48 48 49 51 53 53 52 47 48 56 50 45 46 40 40 47 45 47 48 48 45 45 44 48 46 41 41 39 37 36 37 39 37 36 37 37 36 34 34 33 31 31 32 33
49 51 47 47 52 48 48 49 49 50 49 48 41 45 42 44 44 41 43 45 42 39 42 43 43 40 36 36 36 37 37 38 37 37 35 35 34 33 32 32 33 32 28 28
54 51 47 50 49 49 47 43 44 44 41 42 41 43 43 45 43 40 43 41 41 38 40 40 38 36 35 36 36 37 37 38 37 37 36 35 34 33 33 30 30 31 31 31
50 50 50 51 48 44 38 39 41 42 39 39 40 41 42 44 45 41 41 37 39 36 40 37 34 35 35 35 36 35 36 35 34 34 33 33 31 30 32 32 32 32 32 31
51 47 41 43 40 36 36 32 35 35 37 37 38 37 42 42 42 40 39 36 37 40 35 32 35 34 35 36 35 34 34 35 33 30 30 31 32 33 32 32 32 33 32 31
43 39 34 34 34 33 33 33 34 34 34 37 40 38 39 39 37 38 35 34 37 33 32 33 34 35 36 36 34 33 31 32 31 31 32 32 31 31 31 30 31 29 28 27
36 36 31 31 32 33 33 33 34 35 38 38 42 41 40 37 34 37 34 32 32 32 33 34 35 35 36 34 33 31 33 34 32 32 32 31 31 30 28 29 29 29 27 27
35 33 32 33 33 32 32 32 32 36 37 40 41 37 35 33 36 35 32 33 32 33 33 34 34 34 36 35 32 33 33 34 33 33 32 31 31 30 27 27 27 27 26 23
34 32 32 33 32 32 32 33 34 36 36 33 36 33 31 35 34 32 33 31 32 32 33 34 34 34 36 34 35 34 34 33 33 32 30 29 29 29 27 23 20 22 25 23

GFSNW_sfc_dewp_027.txt.gz
Dewpoint
44 47 48 49 50 52 51 50 41 49 53 43 42 39 40 40 36 38 34 34 32 25 27 25 20 21 33 30 32 29 38 35 32 31 29 28 26 28 32 26 21 29 27 24
46 46 48 48 49 52 50 46 45 51 47 33 37 36 40 41 38 37 34 34 35 33 30 31 25 37 40 39 36 32 36 28 25 23 26 30 27 26 26 33 32 25 22 24
46 46 45 48 49 51 51 46 41 49 49 35 34 33 36 39 40 38 35 33 34 32 28 28 30 37 40 40 39 40 39 31 27 23 25 28 29 32 30 27 27 27 27 27
45 45 45 48 48 51 51 46 39 45 41 42 35 36 36 38 37 37 35 33 32 31 26 31 29 38 39 41 40 37 35 28 30 32 33 30 28 30 28 24 28 26 27 27
44 45 45 48 47 51 48 44 38 47 44 42 41 36 37 37 35 34 32 33 32 30 30 33 30 36 37 36 39 35 35 33 33 31 31 28 26 27 26 25 25 23 24 24
44 45 45 46 47 50 46 45 47 43 43 42 39 35 37 38 37 37 32 36 35 33 38 39 41 40 40 39 38 36 35 33 30 27 28 24 19 21 25 27 27 25 21 24
44 44 45 47 47 49 48 45 46 45 38 41 36 36 37 38 37 37 35 36 36 42 44 43 42 39 40 40 39 42 36 34 30 27 26 10 22 25 20 23 23 23 22 25
45 45 45 46 47 49 47 47 49 48 36 40 36 36 38 41 39 38 41 45 43 45 44 40 36 33 28 33 35 40 41 33 30 24 25 24 23 27 28 24 24 28 28 28
44 45 46 46 47 48 48 46 49 51 46 40 36 34 39 40 40 43 45 47 50 46 45 34 30 29 30 31 31 37 34 35 28 27 23 17 29 28 29 27 26 33 32 33
45 45 46 47 48 48 47 47 50 49 48 44 41 36 39 42 44 43 45 46 43 47 36 36 29 29 34 31 31 29 30 29 26 25 23 29 34 29 32 19 26 35 34 34
45 45 46 46 46 46 46 45 47 50 48 48 46 40 41 45 45 41 45 45 43 39 37 34 33 32 32 32 36 33 31 30 27 31 29 25 32 30 24 36 35 34 33 34
45 46 46 46 46 46 46 42 47 52 48 50 54 51 52 48 47 47 45 45 44 45 41 40 37 35 34 32 28 35 31 36 32 32 32 37 32 30 34 34 33 36 38 39
46 46 46 46 46 46 46 45 51 51 47 48 50 49 50 51 51 50 45 47 47 46 50 44 41 36 34 32 32 33 34 36 34 31 32 32 31 38 41 41 41 41 38 38
46 46 46 46 47 48 48 47 50 51 48 42 48 52 48 50 52 52 51 50 52 52 51 41 38 37 44 34 36 35 37 34 33 32 33 41 41 41 41 39 39 35 33 33
46 47 47 47 49 50 51 51 51 53 47 44 46 49 49 49 50 51 52 51 50 48 41 35 37 39 39 35 36 32 36 34 32 31 40 39 38 38 38 37 36 37 36 36
46 47 48 48 48 49 51 46 51 52 51 46 40 48 48 48 49 49 50 50 49 49 45 41 43 44 39 33 30 38 39 40 41 40 40 39 38 38 38 37 37 37 36 36
47 47 47 48 49 50 47 46 51 51 52 47 39 39 47 49 50 49 49 49 50 48 46 39 40 40 44 33 32 38 38 39 39 40 39 38 38 37 36 35 35 35 34 34
48 47 48 49 49 50 49 52 50 50 51 48 39 38 42 49 42 41 48 44 45 45 42 41 37 40 35 33 37 37 38 37 38 38 39 38 37 36 35 35 33 32 31 32
48 48 48 50 50 49 51 49 49 54 49 39 38 37 36 46 43 41 43 46 38 44 37 36 38 33 34 38 37 37 39 38 37 37 36 36 35 34 32 31 31 32 32 31
48 49 49 43 49 49 50 48 44 43 44 42 36 41 38 43 37 37 38 37 37 33 37 40 34 30 36 37 37 37 38 38 36 35 34 34 33 32 33 32 30 29 29 29
50 47 42 48 49 48 41 34 35 37 34 36 37 39 38 44 37 36 37 35 35 29 34 33 33 30 35 37 36 38 38 38 38 36 35 35 34 32 30 30 30 30 30 29
49 48 49 48 45 40 35 33 34 36 34 34 36 38 41 39 43 35 37 34 33 28 38 34 29 33 36 36 36 37 37 36 35 34 32 32 31 31 31 31 30 29 29 28
47 42 38 41 36 34 32 29 32 32 34 35 35 35 37 38 39 36 35 35 32 35 33 29 29 35 35 35 35 34 33 32 32 32 33 32 32 32 32 31 30 29 27 28
38 35 32 32 32 31 30 31 32 32 33 34 36 35 35 34 34 34 32 33 33 31 29 27 32 35 36 35 34 32 31 31 31 31 31 30 30 29 28 28 25 25 25 27
34 32 28 29 31 32 32 32 33 33 35 34 36 35 36 34 33 33 32 31 29 30 28 32 34 35 35 33 31 31 30 30 31 31 30 29 28 27 27 26 27 26 24 22
33 31 31 32 32 31 32 32 32 35 34 35 35 33 33 32 33 32 31 29 26 29 31 32 34 34 34 31 32 33 32 32 32 31 30 29 27 25 25 26 24 21 19 16
32 30 32 32 32 31 32 32 33 36 34 32 33 31 29 32 31 29 30 27 30 31 31 33 34 34 33 33 33 33 32 32 31 30 30 29 28 25 24 22 24 23 21 15

GFSNW_sfc_dewp_030.txt.gz
Dewpoint
45 45 45 46 47 48 49 47 41 50 52 40 40 39 38 38 38 40 40 36 34 25 25 23 21 22 21 31 37 30 37 34 30 29 30 34 29 28 30 25 19 27 25 22
44 44 44 45 46 47 45 43 44 50 48 34 34 37 38 38 36 38 38 35 34 32 30 26 31 33 39 40 34 32 34 29 25 24 24 28 27 26 28 32 29 25 22 23
44 44 44 45 44 47 47 44 39 45 46 39 31 35 37 37 38 38 40 39 38 34 32 34 32 36 39 41 38 41 36 29 24 22 20 25 27 31 31 29 26 26 26 25
44 44 44 46 48 46 47 45 39 40 38 39 32 33 34 34 32 39 39 36 37 34 28 32 31 38 38 39 39 36 32 27 28 27 31 32 28 29 29 26 27 25 25 26
43 44 44 43 46 47 45 42 40 42 41 38 36 33 32 31 30 34 32 36 36 34 28 29 31 37 36 33 37 33 35 29 32 29 30 27 25 25 26 26 26 28 25 25
43 45 45 45 46 48 43 45 46 43 40 39 38 33 32 29 31 37 35 36 34 34 32 37 35 38 39 38 35 35 34 31 28 26 26 22 22 23 23 25 27 25 22 26
44 43 44 45 45 46 47 45 47 44 37 40 38 36 33 32 34 32 37 34 36 39 42 40 37 36 39 42 43 40 33 31 28 25 22 14 25 26 25 26 25 25 26 26
44 44 45 45 46 45 47 49 47 45 34 40 40 38 34 34 36 39 36 42 40 43 42 37 33 32 31 32 38 39 39 34 30 22 22 24 23 25 23 23 26 29 28 29
43 43 44 45 45 46 47 47 48 45 44 40 42 39 35 33 38 37 43 47 48 47 41 32 28 27 29 30 30 35 37 32 29 27 21 15 25 29 29 29 27 32 33 33
43 44 44 45 44 47 47 47 48 45 42 46 41 38 35 35 42 39 45 43 42 45 35 31 29 29 32 29 28 27 28 28 24 22 20 25 30 31 29 16 21 33 34 33
43 43 44 45 45 47 45 46 48 46 44 46 49 39 36 40 43 40 43 43 43 38 35 33 31 27 32 31 33 31 28 28 26 30 24 21 35 29 24 29 36 34 33 34
44 43 45 45 46 46 45 44 48 49 44 46 49 50 49 39 45 46 45 41 43 44 39 38 35 32 32 30 29 36 27 31 29 30 29 34 32 33 36 36 36 38 41 42
44 44 45 46 46 47 45 45 48 48 44 45 47 46 49 51 48 48 43 45 46 47 46 42 40 31 32 30 29 32 34 38 34 32 34 36 41 42 42 42 38 35 37 39
45 45 46 46 46 47 45 45 48 49 47 39 45 52 49 51 50 48 47 47 51 51 46 39 36 33 38 30 33 32 35 34 33 33 39 40 40 39 38 35 36 34 34 34
45 46 47 46 47 47 46 48 49 49 48 40 42 50 50 51 52 51 49 50 48 44 37 34 33 35 39 31 33 31 35 33 31 30 37 37 38 38 38 36 36 36 35 35
46 47 47 47 47 47 47 43 49 51 51 44 37 48 49 51 53 52 50 49 49 47 42 36 40 43 36 30 28 36 39 40 39 40 40 38 38 37 37 37 36 36 35 34
46 47 47 47 47 48 44 43 49 50 50 44 38 39 48 51 49 49 49 50 48 47 43 38 38 40 40 30 31 38 39 40 38 38 38 37 37 35 35 35 35 35 34 33
46 46 47 48 48 49 46 48 51 51 49 48 37 39 41 48 42 42 47 43 44 44 42 40 36 39 33 32 38 38 38 38 39 38 39 37 35 34 33 33 32 32 31 30
47 47 48 48 48 45 46 49 50 51 49 40 36 35 36 44 40 39 41 41 37 42 36 36 38 34 31 37 37 37 37 37 37 36 36 35 34 33 31 31 31 30 29 29
47 47 46 40 47 50 50 49 46 45 44 40 35 41 37 42 36 37 35 36 35 34 35 38 33 33 35 36 37 38 37 37 36 34 33 33 31 31 31 31 30 29 28 29
47 45 41 49 49 47 43 36 35 36 33 36 36 36 38 43 36 35 35 34 32 31 34 32 32 32 34 38 38 39 38 38 37 35 34 33 32 31 30 30 29 29 29 29
48 48 49 48 45 37 34 32 34 33 33 35 36 37 41 39 42 37 36 33 31 28 36 30 31 34 37 38 38 38 38 36 35 35 34 32 31 30 29 29 28 29 29 29
45 41 36 38 33 31 27 29 32 32 33 35 34 34 36 38 39 35 34 32 29 34 33 30 29 35 36 36 34 33 33 33 33 32 32 32 31 30 29 29 29 28 27 26
35 32 30 31 30 29 30 31 32 32 33 33 34 34 35 34 34 33 31 33 33 26 23 25 32 35 35 34 33 32 32 31 31 30 30 30 30 29 29 27 26 26 25 23
32 32 27 28 31 32 32 32 33 33 34 34 35 34 36 33 33 32 32 31 28 27 26 31 33 35 34 32 31 31 30 30 29 29 28 28 27 26 26 26 26 25 24 20
29 31 30 31 31 31 32 32 32 35 33 34 34 33 31 31 32 30 29 28 26 28 30 32 34 32 31 31 31 31 30 29 29 29 28 27 26 25 25 25 23 22 20 16
29 29 32 32 32 31 32 32 32 35 34 32 32 29 29 32 28 26 29 25 28 31 31 33 34 32 33 33 32 31 31 31 31 29 28 26 25 25 24 21 20 21 20 17

GFSNW_sfc_dewp_033.txt.gz
Dewpoint
47 47 46 46 46 47 48 43 37 50 51 42 38 34 36 38 35 40 40 40 36 28 26 24 22 21 19 26 36 29 34 30 27 27 31 32 29 28 27 25 20 26 25 22
46 47 46 45 44 46 45 39 42 51 48 36 35 36 36 36 34 36 37 38 38 34 27 22 26 26 36 37 32 33 35 29 25 24 26 27 28 28 31 30 28 24 22 22
47 47 46 45 45 46 47 41 37 44 46 40 35 34 35 37 38 36 39 39 40 37 30 32 31 33 38 39 36 41 35 29 26 24 24 26 26 29 29 29 26 25 25 24
47 46 45 45 45 44 44 41 36 40 38 38 38 34 34 35 34 37 36 36 38 37 32 30 31 37 37 38 38 36 32 26 25 25 24 30 27 27 30 27 27 25 26 27
46 45 44 44 44 46 42 38 40 41 39 38 37 35 32 34 35 36 35 31 35 33 34 30 29 35 35 33 35 33 34 27 30 29 29 27 25 25 25 26 26 28 26 25
46 45 44 44 44 44 40 42 43 43 37 37 36 33 33 32 35 36 34 35 36 36 36 36 32 37 37 34 34 33 31 30 28 24 26 23 23 24 24 24 26 26 22 24
44 44 44 44 44 44 44 42 43 42 36 37 34 33 33 32 33 32 33 31 35 37 40 38 37 36 39 42 41 37 31 29 28 25 22 16 26 27 25 25 26 26 26 27
44 43 43 44 44 43 42 45 43 42 35 35 36 36 34 33 33 33 30 37 33 43 40 35 33 31 33 32 37 39 36 31 28 23 23 24 24 25 25 24 23 28 28 30
43 43 43 44 44 43 43 44 44 43 40 38 37 36 35 33 33 33 38 37 46 43 38 31 29 29 31 30 33 35 32 32 30 25 19 17 26 27 28 29 25 30 31 31
42 43 44 45 44 43 44 44 48 43 38 43 42 39 37 35 35 34 40 44 43 43 33 29 28 27 32 28 28 26 28 28 26 21 20 24 26 30 26 20 23 33 33 34
42 43 43 43 45 46 44 43 48 44 40 42 47 47 39 37 35 34 39 43 43 35 34 32 29 28 32 29 31 28 29 28 25 25 20 19 31 31 21 27 34 35 34 34
43 44 44 44 44 45 44 44 49 49 43 43 46 45 45 45 38 41 44 39 43 42 38 36 35 30 29 31 28 35 26 30 29 29 28 32 33 29 33 36 34 34 36 39
43 43 44 45 44 45 46 46 47 46 42 40 43 43 46 48 48 48 44 44 46 44 46 41 37 31 32 29 29 31 33 37 31 30 34 35 39 40 39 40 39 39 41 40
43 44 44 44 45 46 47 45 47 46 44 38 42 52 50 51 51 48 47 46 51 48 46 40 36 33 37 31 32 31 34 36 34 34 38 39 38 37 35 35 35 35 35 34
44 44 45 45 46 47 46 47 47 49 44 38 40 46 49 52 51 48 48 50 46 42 39 34 36 37 37 31 33 29 35 34 32 32 39 36 38 37 37 35 35 35 33 33
44 44 44 46 46 46 44 40 46 48 49 42 35 45 47 50 51 49 45 48 47 43 41 36 39 43 38 33 29 34 37 37 35 35 39 38 38 37 37 36 36 35 33 31
45 46 46 46 46 43 40 38 45 47 49 42 35 32 44 50 48 47 48 48 48 47 44 36 38 40 36 28 29 35 39 39 38 37 37 35 36 35 36 35 35 34 33 33
45 45 46 46 45 45 44 49 47 47 45 45 36 35 39 46 39 42 47 42 44 44 42 38 35 39 33 31 37 38 38 38 38 37 38 37 35 34 34 33 33 32 32 31
46 46 46 46 44 43 46 49 50 51 47 40 36 34 34 44 40 40 40 42 37 42 37 38 39 34 33 36 38 38 38 38 36 35 34 34 33 32 32 31 30 29 28 29
47 45 43 38 44 48 48 47 44 44 45 40 35 40 37 42 35 35 37 37 35 34 36 39 34 33 35 37 38 38 37 36 35 34 33 32 31 30 30 30 29 28 28 29
45 41 40 47 48 45 41 37 36 37 34 36 37 37 38 42 36 35 35 34 33 33 35 35 32 32 33 36 37 38 38 38 38 37 35 33 32 31 29 29 29 28 28 28
45 46 48 46 42 38 33 33 34 34 33 34 35 37 41 38 41 36 35 33 32 30 35 31 31 33 36 36 37 38 37 36 35 34 33 33 31 31 30 29 28 28 28 27
46 40 36 38 33 31 30 29 31 32 33 34 34 34 35 37 37 33 31 29 27 32 33 31 31 36 36 35 34 34 35 34 33 32 32 31 29 29 28 28 29 28 27 25
36 33 29 30 28 29 29 31 32 32 32 33 34 34 34 33 34 32 28 32 33 29 27 24 32 34 34 34 34 33 32 32 31 30 30 29 28 28 28 27 26 25 24 24
32 32 27 28 31 32 32 32 33 33 34 34 34 34 35 33 32 32 32 30 28 27 25 30 33 33 33 32 32 31 30 29 29 29 29 28 27 25 25 26 26 23 22 20
31 31 29 31 30 31 31 32 32 35 33 34 34 32 31 31 31 30 27 27 25 26 29 32 33 32 32 31 31 31 30 30 30 30 29 28 27 25 25 25 23 21 19 17
28 29 32 31 31 30 31 31 32 35 33 31 32 28 27 32 27 24 28 24 27 29 31 32 33 32 31 32 31 31 31 30 28 28 28 26 25 24 23 22 22 19 19 17

GFSNW_sfc_dewp_036.txt.gz
Dewpoint
46 45 45 47 48 47 46 43 33 47 51 42 41 37 35 37 37 39 38 39 38 31 26 24 23 22 23 25 32 26 31 27 22 24 31 30 27 26 27 24 20 26 24 22
46 45 45 47 48 47 44 39 37 50 46 35 35 36 34 36 35 36 37 37 38 36 28 22 25 25 28 34 30 31 33 27 23 23 24 27 27 28 30 29 27 24 21 22
47 45 45 46 48 46 44 40 32 43 44 38 34 33 34 32 38 35 36 38 39 36 32 30 25 26 36 38 33 40 34 29 24 22 22 25 24 27 30 28 26 25 24 23
47 45 45 46 48 46 43 41 32 38 34 36 36 34 33 33 32 35 37 36 38 34 32 29 31 35 37 36 40 35 30 24 26 25 24 26 26 26 28 26 26 25 26 25
46 45 45 46 46 46 40 37 36 40 37 35 36 37 32 33 33 36 32 35 35 37 35 30 28 35 34 32 34 33 32 26 28 28 28 27 28 26 27 28 28 27 26 25
46 45 45 46 45 44 39 40 41 41 34 35 34 33 33 32 35 35 36 33 31 35 34 34 34 35 37 36 34 33 30 29 27 24 25 23 23 24 25 25 26 27 25 27
46 45 46 46 45 42 39 40 43 39 34 36 33 32 33 33 34 34 35 37 34 34 40 39 37 37 39 39 39 36 29 28 27 24 23 16 24 27 26 25 25 25 25 26
46 46 46 45 44 43 39 41 41 40 34 35 36 34 32 34 35 35 35 34 34 42 40 37 34 32 31 32 36 35 34 30 26 24 23 22 23 25 25 24 21 27 26 32
46 45 45 44 44 44 39 43 45 42 38 35 35 35 33 32 33 33 35 37 43 42 38 33 30 30 31 30 32 34 32 31 29 23 19 18 25 26 27 26 22 29 32 33
46 45 44 44 43 44 40 39 42 43 36 41 41 35 35 36 34 33 35 36 41 41 29 28 27 30 32 30 31 30 29 28 25 21 20 25 28 27 28 20 23 31 33 34
45 44 44 43 43 44 40 38 43 43 38 39 42 44 38 36 36 32 37 41 41 35 34 32 30 26 31 30 32 32 32 29 25 24 20 23 29 29 24 28 33 34 33 34
44 44 43 43 44 44 41 38 43 45 43 41 45 44 43 42 39 36 39 35 41 40 37 34 33 28 27 30 28 33 29 32 30 30 30 32 32 30 31 32 34 34 34 37
43 43 43 44 44 44 41 42 43 43 42 40 41 40 44 46 45 45 36 43 44 43 44 39 38 32 32 30 30 32 33 33 30 29 31 32 35 39 37 37 36 38 39 38
42 43 43 44 44 44 42 42 47 45 43 36 39 48 46 50 48 47 47 45 47 46 45 39 36 34 36 31 34 32 33 34 33 31 37 38 38 38 36 36 37 35 35 34
43 43 43 43 44 45 44 44 47 47 41 36 38 42 45 48 51 50 48 47 45 42 39 35 35 36 37 33 36 31 36 34 32 31 35 34 34 36 36 36 35 35 34 33
43 44 44 44 44 45 43 39 46 48 47 40 34 42 43 47 50 50 48 47 45 43 39 37 41 43 40 34 32 34 36 36 37 33 39 37 37 36 36 35 34 33 32 32
44 44 44 44 45 44 39 37 42 47 47 41 35 32 40 48 49 46 46 46 45 44 41 37 39 41 38 30 31 33 38 39 39 38 37 35 36 35 35 34 33 32 31 32
44 44 45 46 45 43 40 44 47 45 43 41 34 34 38 46 41 42 46 39 41 43 41 36 36 39 32 32 34 38 38 37 37 37 37 37 36 35 34 32 32 31 31 31
45 46 45 43 41 38 39 46 47 48 43 36 36 34 33 43 40 41 38 39 34 41 36 37 38 34 34 34 37 38 37 37 36 35 35 35 34 33 32 32 31 30 30 30
45 43 40 32 38 47 46 46 42 43 43 43 35 39 34 42 36 37 36 36 35 32 35 38 33 34 35 37 38 38 37 36 34 33 32 32 32 31 31 30 30 30 30 30
42 39 37 43 47 45 40 34 35 37 34 37 36 37 37 42 35 35 36 34 33 33 35 36 33 34 34 37 38 38 37 36 37 35 34 33 32 30 29 29 29 29 30 29
41 44 46 45 40 36 33 32 33 32 33 34 35 37 40 38 41 35 35 34 33 32 35 34 32 34 36 37 37 37 36 35 34 34 32 32 31 30 29 29 28 28 28 26
46 40 35 35 32 31 28 29 31 32 32 34 34 34 35 37 38 33 34 32 31 34 33 31 31 35 35 36 35 34 34 34 33 33 32 32 31 30 30 29 28 27 25 25
35 34 27 29 27 28 29 29 31 32 32 33 33 33 34 33 34 32 32 32 32 29 26 26 32 34 34 34 34 32 32 31 31 31 30 29 29 28 28 28 27 25 25 25
32 32 26 28 31 32 32 32 32 33 34 33 34 34 35 33 32 32 32 30 26 27 26 29 32 33 33 32 31 31 30 30 30 30 28 27 28 27 26 26 25 25 24 21
31 30 28 30 29 29 30 30 32 35 33 34 34 32 31 30 28 23 23 25 21 25 28 31 32 32 31 31 31 31 31 30 30 29 28 27 26 25 24 22 22 21 20 19
28 28 29 28 29 27 28 29 30 33 33 31 31 23 22 27 23 18 22 21 25 27 30 32 32 31 30 31 30 30 30 29 29 28 28 26 26 25 22 18 18 18 19 19

GFSNW_sfc_dewp_039.txt.gz
Dewpoint
48 48 47 47 47 47 47 41 33 43 47 39 40 36 34 37 34 39 38 39 39 34 30 27 26 26 26 26 30 27 32 31 27 24 30 29 28 30 29 30 23 27 27 22
48 48 48 46 46 47 44 38 36 44 43 33 33 35 33 36 33 36 38 37 39 38 31 26 28 28 30 33 30 32 34 29 24 22 26 28 29 29 29 29 30 27 31 25
49 48 48 46 46 47 44 39 33 39 41 35 30 33 32 32 37 36 37 38 39 38 35 32 28 29 34 36 32 39 35 31 27 21 23 27 28 29 30 30 29 28 28 26
47 49 48 46 46 46 43 40 34 38 32 33 32 32 32 32 32 35 37 36 37 36 32 32 30 32 38 37 41 37 35 29 29 26 24 25 25 28 29 27 29 30 28 25
47 49 47 46 46 46 42 36 36 38 36 33 33 34 32 31 32 32 33 34 35 35 36 33 31 36 36 34 37 36 34 30 28 27 28 27 29 27 29 29 28 27 27 27
47 48 47 46 46 45 40 42 39 37 35 33 30 30 31 32 35 34 33 35 36 36 34 38 38 38 38 38 37 35 34 33 30 25 26 26 28 29 27 27 29 30 28 30
45 47 47 46 46 45 43 40 41 36 29 35 30 30 32 32 34 33 33 37 33 36 40 40 40 39 39 39 38 37 33 33 31 29 27 26 27 27 27 29 29 27 27 27
44 46 46 46 46 45 41 41 41 39 31 33 33 33 31 35 35 35 35 37 38 40 42 36 34 35 35 35 36 35 34 33 29 30 26 26 24 26 27 27 23 27 26 27
44 47 46 46 46 45 42 42 44 42 34 35 35 34 32 32 34 35 37 40 44 41 39 36 32 32 33 32 33 33 32 34 35 26 27 25 30 27 29 27 24 29 30 33
45 47 45 45 46 45 41 42 44 43 36 38 40 35 34 34 34 35 36 37 40 40 34 34 32 33 34 32 32 32 32 31 31 26 31 30 30 27 30 26 27 33 33 35
46 46 45 45 45 44 39 40 43 41 38 38 41 40 40 36 34 32 37 37 39 38 34 35 34 33 34 34 34 33 32 31 32 29 32 29 31 27 29 35 33 35 36 38
46 45 45 45 45 44 41 38 44 45 40 39 45 45 44 43 38 35 40 35 38 39 38 36 34 34 33 33 31 33 34 35 33 33 35 38 33 35 34 33 34 36 37 37
45 46 45 45 46 44 41 40 42 41 38 36 39 39 42 46 44 44 37 41 44 42 45 40 39 35 36 33 32 34 34 34 36 35 35 34 35 35 37 35 36 36 37 38
45 44 44 44 44 45 41 41 43 40 40 33 36 46 45 49 47 45 45 45 47 47 45 40 38 37 39 36 37 36 36 35 33 33 34 38 38 39 38 37 39 38 36 36
45 45 45 45 45 43 41 43 43 42 40 35 37 42 43 46 46 47 47 46 46 44 41 38 39 38 38 36 38 35 36 35 34 34 34 36 34 38 38 38 37 37 35 35
44 44 44 44 44 43 41 36 43 46 46 38 33 42 41 46 50 49 48 46 46 47 42 39 40 43 40 37 35 36 37 40 40 35 39 37 37 37 37 36 36 36 35 34
42 42 43 43 43 43 39 37 41 44 47 40 34 35 41 45 49 48 48 48 47 46 43 40 41 42 41 35 34 34 37 38 40 38 38 36 36 36 36 34 34 34 32 32
43 43 43 43 43 42 41 44 46 46 43 41 33 33 38 46 41 42 46 44 44 44 42 39 40 40 36 34 34 38 39 39 39 38 38 38 36 34 33 32 32 32 31 32
43 44 44 43 42 39 39 46 46 47 42 34 33 32 34 44 41 41 41 42 38 42 38 39 40 36 37 37 36 38 38 38 37 36 36 35 34 33 32 32 32 31 31 31
43 42 39 34 40 45 45 43 40 40 40 41 35 39 36 41 36 36 36 37 36 36 37 39 37 36 36 37 38 39 37 36 36 34 34 34 33 32 32 31 32 31 30 30
42 38 37 41 46 43 38 33 34 36 34 37 36 37 37 42 36 36 37 34 34 34 37 37 35 35 35 38 38 38 37 36 37 36 34 34 34 32 31 31 32 31 31 30
41 42 45 45 40 36 32 31 32 32 33 35 36 37 40 38 41 35 36 34 33 32 36 35 33 34 36 38 37 38 37 36 35 34 33 32 32 31 31 30 30 29 28 28
45 39 35 36 33 31 29 29 31 31 32 34 34 34 36 37 38 33 33 32 32 35 33 30 31 34 35 36 35 34 35 35 34 33 32 31 30 30 30 29 29 29 28 28
34 33 29 29 26 28 29 29 30 32 32 32 34 33 34 33 33 32 32 32 32 30 27 26 30 33 33 33 33 32 32 31 31 30 30 29 29 28 29 29 29 27 26 26
32 30 26 27 31 31 32 32 32 32 34 33 34 34 35 32 32 32 31 30 24 24 24 28 31 32 32 31 31 31 30 30 29 29 28 28 28 27 26 27 28 26 25 24
30 25 24 27 27 24 26 26 28 32 32 34 34 32 30 28 27 23 20 22 18 21 24 29 32 30 30 30 30 30 30 29 29 29 28 27 26 25 24 24 24 24 22 21
29 25 25 24 25 23 24 25 27 31 33 29 28 20 19 25 20 16 19 16 20 21 25 30 31 30 30 30 30 30 30 29 28 27 27 25 25 24 23 21 19 20 20 21

GFSNW_sfc_dewp_042.txt.gz
Dewpoint
49 49 49 48 48 47 47 42 34 45 46 36 37 34 32 30 28 34 35 36 37 32 29 25 24 22 23 25 26 27 27 27 27 23 28 29 24 25 27 26 22 28 29 21
49 48 49 48 48 47 46 37 39 46 43 30 32 33 32 29 30 29 35 35 37 37 33 27 26 25 27 28 28 26 31 27 25 23 26 28 25 26 25 28 30 27 31 23
49 49 49 49 48 48 45 38 33 40 41 32 30 30 30 28 30 28 34 34 37 37 35 33 28 26 31 32 29 39 35 27 25 22 20 20 25 25 26 28 29 27 28 23
47 48 49 49 48 47 44 39 34 37 32 33 29 30 27 27 29 31 33 35 36 35 33 32 30 28 32 34 38 31 32 26 26 21 18 17 18 18 25 25 27 26 25 21
46 47 48 49 48 47 42 35 36 38 30 32 31 32 30 25 27 29 28 32 35 35 32 31 30 34 34 29 37 32 32 25 29 26 23 23 20 20 20 24 23 25 25 23
45 46 46 49 48 47 41 42 38 34 31 31 30 31 29 29 30 30 26 29 29 34 34 37 38 37 37 34 36 36 34 31 29 23 26 25 29 29 24 25 28 28 25 25
45 45 46 47 47 46 45 39 41 36 29 31 29 28 27 27 29 31 29 30 32 33 40 37 36 36 38 38 34 36 36 34 33 29 32 30 22 27 26 26 26 26 26 25
45 45 45 46 47 46 43 41 39 35 36 30 29 29 27 28 31 31 30 34 34 40 34 31 28 31 32 36 38 38 37 36 33 36 27 23 24 26 27 28 25 25 25 25
45 45 45 45 47 46 42 44 42 43 36 31 28 31 29 30 31 35 34 33 43 41 40 36 29 20 22 29 34 34 35 37 38 31 28 30 25 25 28 27 27 25 27 28
45 44 45 46 47 46 41 43 47 44 35 31 33 34 32 31 32 33 34 37 39 39 40 39 32 27 23 26 34 35 34 34 36 33 34 30 30 29 29 27 30 30 29 30
44 44 45 47 46 45 41 43 46 41 39 38 39 39 36 34 34 34 35 36 39 41 37 36 34 38 35 29 31 34 33 34 36 34 37 33 31 28 29 33 37 34 35 35
44 44 46 46 46 46 42 41 44 45 41 40 42 42 44 44 34 35 40 33 35 36 36 39 38 41 40 35 33 36 34 35 35 33 34 36 35 33 34 37 34 36 36 36
44 45 46 46 46 45 42 43 43 40 39 38 38 37 41 47 45 45 34 36 33 38 40 43 43 41 42 40 36 35 36 37 38 36 32 35 36 34 35 34 35 34 35 38
46 46 46 46 46 44 42 41 43 39 36 33 31 41 42 45 45 45 44 42 41 45 43 44 43 43 39 41 36 38 35 35 35 36 35 36 37 36 35 35 36 36 36 38
46 46 46 46 44 43 44 45 41 37 32 34 32 35 37 39 39 41 46 43 43 41 44 42 40 39 41 42 40 40 35 34 37 38 37 39 34 36 38 37 37 37 37 38
45 47 47 45 44 42 41 37 41 42 40 37 34 41 41 43 43 45 45 43 42 41 41 43 41 43 42 42 36 32 34 36 37 35 38 38 38 38 38 38 37 38 38 38
45 45 44 44 43 43 38 34 40 43 43 34 32 35 40 43 45 47 47 47 45 42 43 43 42 44 42 44 38 32 35 36 37 39 38 37 37 36 38 38 38 39 37 37
45 44 44 43 42 41 40 46 45 46 39 39 34 34 39 45 44 43 48 46 46 44 43 43 42 43 43 39 37 37 37 38 39 39 38 38 38 37 36 36 36 35 35 35
43 44 43 42 41 38 40 45 45 47 43 36 35 34 36 44 42 43 41 45 41 45 43 43 43 42 38 37 38 37 39 39 39 38 37 37 36 35 34 34 35 34 34 34
43 41 39 35 40 44 47 43 38 40 41 41 36 38 33 40 41 41 38 38 36 36 41 44 42 40 39 38 39 39 39 38 38 37 36 36 34 34 34 34 35 34 34 34
40 38 37 41 44 43 40 34 35 36 33 38 38 38 34 42 39 39 42 36 34 34 38 40 39 38 36 38 39 39 38 38 38 38 37 37 36 35 34 34 35 34 33 33
43 43 44 45 40 37 33 32 34 34 31 38 37 38 38 41 43 40 39 38 36 34 38 38 35 33 35 37 38 38 38 37 36 36 36 36 35 35 34 34 33 31 30 30
45 40 38 37 35 31 30 30 32 33 34 35 36 36 39 42 41 37 36 34 35 36 33 28 28 33 34 34 35 34 35 35 34 33 33 33 33 33 32 30 30 30 29 29
36 34 30 32 29 30 30 30 32 35 33 34 36 35 36 36 34 33 34 33 34 31 27 25 28 31 32 33 33 32 31 31 31 30 30 29 29 29 29 30 30 29 29 29
31 31 27 28 30 29 30 31 32 33 33 33 34 34 35 33 32 32 33 30 25 24 22 26 28 32 32 32 31 30 29 29 29 29 28 28 28 28 28 29 29 28 27 26
27 23 22 25 26 24 25 25 27 31 30 33 34 32 31 27 26 23 21 22 16 20 22 25 30 31 30 30 30 30 30 29 29 29 28 27 27 26 25 26 26 26 26 25
26 24 25 23 23 22 24 26 26 30 33 30 26 21 22 26 20 17 19 17 20 22 23 24 28 29 29 30 30 30 29 29 28 27 27 27 27 27 25 22 23 24 24 23

GFSNW_sfc_dewp_045.txt.gz
Dewpoint
49 49 49 49 49 48 47 42 35 44 47 36 37 32 31 30 21 22 18 25 25 22 29 24 20 22 21 22 22 24 25 26 27 26 27 26 25 25 26 27 24 27 28 23
48 49 49 49 49 49 45 39 38 47 44 31 34 31 30 28 25 22 20 27 31 30 28 29 26 25 28 31 24 26 26 24 26 24 26 26 25 25 24 27 27 27 33 26
47 49 49 49 49 49 46 39 33 40 42 34 29 27 27 24 30 26 20 25 29 31 32 31 29 27 28 34 28 38 35 26 25 25 25 24 24 22 22 24 30 27 25 22
46 46 48 49 49 49 45 40 36 38 32 34 33 28 23 21 23 28 27 24 27 25 28 28 29 29 31 32 36 32 31 25 25 22 22 20 20 21 21 20 22 24 24 20
45 45 46 47 49 49 43 35 33 36 33 35 31 29 25 20 21 22 24 26 28 28 26 27 28 29 30 29 31 31 30 28 26 24 22 20 18 16 16 16 19 19 19 19
46 45 45 46 48 48 42 42 35 35 31 33 31 30 26 21 22 24 22 24 25 30 28 36 38 37 37 35 36 34 29 32 28 27 23 23 26 22 18 17 18 21 22 24
45 46 45 45 47 48 43 43 35 36 31 33 30 27 26 22 22 25 24 26 28 29 33 37 37 35 34 35 35 34 34 32 31 31 33 27 24 23 21 21 20 20 21 22
45 45 45 45 46 48 44 42 38 37 37 29 29 28 27 25 24 27 24 27 29 31 35 32 29 30 29 29 33 33 33 37 35 34 30 25 20 22 23 22 21 20 21 22
45 44 45 45 45 46 45 41 42 43 36 32 28 27 27 26 27 29 30 30 34 38 35 32 26 15 17 21 32 35 35 37 39 34 28 27 27 24 25 23 27 23 22 24
45 45 45 45 45 46 45 46 47 42 35 33 32 31 28 28 28 30 31 32 39 39 39 37 30 21 12 17 32 34 36 37 38 35 33 29 25 23 26 28 28 27 25 25
45 45 45 45 45 46 45 44 46 41 38 36 35 36 36 31 31 32 31 33 36 40 37 35 30 33 26 22 17 30 34 34 37 36 34 33 33 29 28 33 36 34 33 30
44 45 45 45 45 46 45 43 43 47 44 41 43 42 43 39 32 33 36 36 37 34 34 36 32 39 44 29 30 22 32 35 36 33 33 38 36 35 34 32 32 36 35 32
45 45 45 45 46 45 46 45 45 45 41 41 37 35 41 42 43 46 39 38 35 35 36 34 38 36 42 37 34 27 27 36 38 36 34 33 36 35 34 35 36 35 35 33
44 44 44 45 46 45 45 42 43 42 38 37 34 36 37 41 42 44 46 45 40 40 37 41 41 40 30 39 35 35 32 35 35 34 31 33 32 36 37 35 36 35 34 34
44 45 45 46 45 46 44 44 45 43 35 35 32 34 38 44 45 44 44 45 44 38 41 44 40 35 34 38 39 37 29 33 37 36 32 39 39 38 35 38 36 37 36 35
45 46 46 45 45 44 43 37 44 43 39 35 35 39 33 38 41 42 42 42 42 40 35 44 36 33 34 40 35 29 26 32 35 35 37 40 40 38 37 36 36 37 38 36
45 45 44 44 43 41 41 38 38 40 38 33 32 33 36 36 37 42 44 44 41 44 41 41 40 37 40 43 38 29 25 24 25 32 36 39 37 36 38 38 38 39 37 37
44 44 43 44 43 42 40 45 42 41 33 34 31 34 38 41 40 40 45 44 44 42 40 40 40 40 42 38 33 32 32 34 38 39 40 40 39 37 37 38 38 38 37 37
44 44 43 43 42 40 42 44 44 41 35 31 35 33 34 40 41 42 44 44 39 42 42 41 39 41 38 36 33 32 39 40 40 40 39 38 38 37 36 36 37 36 37 37
43 40 36 35 41 45 43 42 38 38 39 40 36 36 34 36 38 37 39 43 38 36 39 41 40 38 38 38 40 40 40 40 39 39 38 38 38 37 36 36 36 36 36 36
38 39 37 43 44 42 41 36 34 35 34 36 36 38 35 41 36 36 42 37 38 35 39 42 38 36 32 35 38 39 40 39 39 39 39 39 39 38 37 36 37 37 37 36
42 41 40 42 39 36 34 32 34 33 31 37 38 37 37 39 40 38 40 35 38 34 40 39 29 29 31 33 35 35 36 37 37 37 37 37 36 36 36 36 34 33 32 31
45 39 37 36 36 31 30 29 33 33 34 36 38 36 39 39 40 38 38 35 34 35 32 27 28 29 30 32 33 32 32 32 33 32 32 32 32 32 32 31 31 30 29 29
37 36 31 32 31 30 28 29 31 33 33 33 37 35 35 37 37 33 34 33 35 31 27 25 27 30 31 32 31 29 29 29 29 29 29 29 28 29 30 30 30 29 29 29
31 29 25 26 29 29 30 32 32 33 33 34 35 34 35 32 32 33 35 31 25 23 22 25 27 31 31 31 30 30 29 29 29 29 29 29 29 28 28 29 29 28 26 25
27 23 23 23 27 26 27 28 28 31 30 33 34 33 30 27 28 24 24 21 18 21 24 26 29 30 30 30 30 30 30 30 29 29 28 27 27 26 27 27 27 28 27 27
26 24 25 23 24 22 25 27 28 33 33 30 30 23 23 28 22 17 19 17 20 23 24 26 26 26 27 28 29 29 29 29 28 28 28 27 28 27 25 24 24 24 25 25

GFSNW_sfc_dewp_048.txt.gz
Dewpoint
49 49 50 50 50 49 48 43 35 44 47 37 38 32 32 32 23 22 24 22 21 19 22 23 30 22 25 24 25 23 26 31 27 22 23 25 25 25 28 29 27 32 38 27
48 48 49 49 49 49 46 39 39 45 44 30 32 33 27 28 26 21 21 23 24 22 24 26 29 30 27 31 26 27 27 26 26 23 28 26 24 25 25 28 30 30 32 28
48 48 49 49 50 49 46 39 32 40 41 33 32 30 28 25 28 24 20 23 22 22 26 33 29 31 27 35 28 40 39 28 25 26 28 26 25 25 28 30 32 31 30 26
48 49 48 50 50 49 46 39 35 37 32 34 31 30 25 24 23 25 24 21 23 22 31 30 32 32 34 30 35 34 35 30 28 24 23 23 24 23 22 21 23 26 27 23
47 47 47 47 48 49 44 34 34 35 30 34 32 32 29 24 22 21 22 25 24 23 27 28 27 32 32 30 30 32 31 30 30 29 24 23 25 27 21 20 20 19 21 22
46 46 46 46 47 49 43 41 38 34 32 33 32 31 30 27 26 24 20 24 26 27 27 33 41 37 41 37 34 33 33 35 30 28 26 24 24 27 22 21 19 20 21 25
45 46 45 45 46 48 42 41 37 36 30 34 31 29 28 27 26 26 21 23 25 27 34 41 46 41 39 38 35 35 34 34 34 32 34 25 25 26 23 23 21 20 19 19
45 45 45 45 45 46 44 44 39 36 36 30 31 30 28 28 29 27 26 23 24 29 38 37 37 38 39 33 33 33 35 37 38 32 28 28 23 25 24 25 23 23 21 20
45 44 44 45 45 45 44 42 44 39 35 32 29 29 29 28 29 29 28 28 31 32 33 36 32 31 30 28 28 32 33 38 37 38 28 26 31 28 27 26 26 26 24 27
44 44 44 45 45 46 45 42 45 42 38 33 33 32 32 30 30 29 29 29 33 39 37 36 33 32 23 22 27 34 35 36 36 35 34 34 28 27 28 26 29 33 30 28
44 45 45 44 45 45 44 43 46 44 41 36 38 38 38 35 32 30 30 31 35 38 37 36 32 33 28 22 21 35 36 35 36 37 34 31 35 30 28 34 40 38 35 37
45 45 45 45 45 45 44 40 46 46 43 42 44 44 45 42 38 34 33 33 32 37 38 36 35 40 39 28 25 26 33 35 37 34 35 40 38 36 38 40 40 41 40 38
45 45 45 45 45 46 44 43 46 46 42 40 41 39 44 45 44 45 39 35 36 40 44 39 40 37 38 39 33 29 28 36 37 35 36 38 38 39 39 38 40 38 38 38
45 45 45 45 46 45 44 44 46 45 41 37 37 43 40 40 42 42 45 43 45 44 41 40 41 38 33 36 34 34 31 30 34 34 34 32 31 38 40 41 41 40 38 39
45 45 45 46 46 45 46 46 46 48 40 35 38 39 35 40 40 39 41 43 44 46 42 42 39 39 38 39 37 35 30 30 33 38 36 39 40 41 41 39 37 37 39 40
45 46 46 45 45 46 44 37 45 47 42 37 34 36 37 41 40 38 36 40 44 46 41 42 39 38 37 41 35 30 29 31 31 34 40 42 44 40 39 41 41 39 41 40
44 45 44 46 45 43 41 38 42 44 43 36 31 32 33 35 39 41 41 41 44 45 43 43 39 38 36 39 35 27 27 28 27 28 35 35 32 40 41 41 40 40 39 40
45 45 45 45 45 45 42 42 44 44 38 33 31 33 37 37 38 38 42 42 43 43 42 43 41 39 43 35 31 31 31 31 33 41 41 41 41 40 39 39 39 40 39 39
44 44 44 43 43 41 42 44 42 47 39 32 32 32 33 40 40 41 43 42 38 42 41 41 40 40 36 36 38 39 40 40 40 40 40 39 39 39 38 37 38 38 39 40
43 42 39 37 42 44 42 41 38 39 39 38 35 33 35 37 36 38 39 42 38 34 39 41 39 37 33 32 35 36 37 39 39 39 39 39 40 40 39 37 38 38 38 38
42 39 38 42 44 42 39 33 31 32 31 32 33 37 36 39 34 34 39 37 35 35 37 37 36 30 29 32 34 35 35 37 37 38 39 38 38 38 39 38 37 36 34 33
42 41 42 42 38 37 33 32 33 32 29 37 37 38 37 39 39 33 36 34 35 32 40 35 26 28 30 30 31 30 32 33 32 33 33 34 34 34 33 32 31 30 30 28
44 40 37 36 36 31 30 25 30 32 32 34 38 36 39 39 38 32 33 32 32 34 30 25 25 26 28 29 29 28 29 29 29 29 29 29 29 29 29 28 28 27 26 26
37 35 29 31 27 26 27 27 30 32 32 31 33 35 33 33 32 32 32 32 33 29 24 20 25 28 30 30 30 28 28 28 28 28 28 27 26 26 27 27 27 26 25 26
28 26 23 24 28 28 28 31 32 32 33 32 34 33 35 32 32 32 33 29 21 21 18 22 27 28 29 29 29 28 28 27 27 27 26 26 26 26 26 26 26 25 24 24
24 21 22 24 25 24 26 27 28 32 31 33 35 33 30 26 26 21 21 19 16 19 23 25 26 26 27 28 28 28 28 28 27 27 27 26 25 24 24 25 25 25 25 24
26 24 26 25 24 24 26 28 28 31 31 30 29 22 24 26 19 15 18 17 19 22 23 25 24 24 25 25 25 25 26 26 27 26 26 26 26 25 23 22 24 24 24 24

GFSNW_sfc_dewp_051.txt.gz
Dewpoint
48 48 49 49 50 50 48 44 34 43 44 36 35 30 30 32 25 29 28 26 23 24 25 23 23 25 31 28 27 25 25 30 25 22 25 24 24 25 28 31 28 33 28 27
47 47 48 49 50 50 47 39 38 45 41 30 31 31 30 32 30 28 26 23 25 25 24 24 25 33 35 38 29 27 27 27 23 24 25 25 22 24 28 32 35 32 28 30
47 47 48 48 49 50 47 38 32 39 41 33 29 29 29 29 31 31 29 27 26 23 24 25 25 31 37 40 30 40 32 28 26 22 25 30 30 27 26 29 29 30 31 30
46 47 47 48 48 49 47 38 34 36 33 34 32 29 27 27 28 27 26 26 26 23 22 24 25 33 37 39 40 33 32 26 26 27 25 27 28 28 26 26 30 30 30 28
47 47 47 47 48 48 45 33 36 35 31 33 33 31 28 26 26 25 24 25 25 25 21 23 25 37 37 38 39 34 34 30 28 27 27 28 24 23 27 27 27 29 29 28
47 46 46 48 48 48 44 42 39 35 32 34 32 31 29 28 29 28 26 26 25 26 25 25 37 44 44 42 41 40 35 32 31 26 27 27 25 28 26 29 29 25 24 24
46 46 46 48 48 48 46 42 39 35 33 31 31 30 30 28 30 28 28 27 25 25 34 43 42 42 41 41 41 43 40 33 32 28 29 22 26 27 28 29 28 24 21 21
45 45 45 45 46 48 45 43 40 35 33 31 30 31 29 30 30 30 29 29 27 26 26 34 33 33 35 37 38 40 41 36 31 28 26 27 27 28 29 27 25 27 23 23
45 44 44 45 45 46 46 42 44 42 35 32 29 31 31 29 29 29 29 31 32 32 27 33 27 25 32 34 36 39 41 40 35 30 25 23 29 31 32 30 26 28 28 28
45 45 44 44 45 45 46 43 42 39 35 35 32 30 30 32 30 29 29 31 31 32 30 25 26 27 32 29 32 32 35 34 31 29 27 32 33 31 32 27 27 31 32 30
46 45 45 44 45 45 44 42 43 39 34 38 36 40 37 33 33 29 31 31 32 35 29 29 28 27 29 29 29 31 34 32 30 34 31 28 38 35 27 32 33 33 33 33
45 46 46 45 44 45 45 41 43 44 38 41 45 43 42 42 42 38 36 31 30 36 33 35 33 28 31 29 26 31 33 36 34 33 33 38 39 40 42 38 38 41 39 38
45 45 46 45 45 45 44 42 43 42 37 40 42 41 46 46 45 46 40 38 33 39 39 38 38 30 34 28 26 28 33 37 34 35 35 31 30 38 41 44 39 39 38 38
45 45 45 45 46 45 44 41 44 42 40 34 37 44 44 45 44 45 46 44 44 43 42 38 37 34 36 30 32 32 32 35 35 34 34 34 36 36 40 42 42 40 39 38
45 45 45 45 46 45 44 44 45 47 41 34 36 40 41 42 44 43 45 44 42 41 38 35 34 38 37 36 35 30 32 31 34 33 36 37 36 37 44 41 38 38 41 39
45 45 46 46 45 45 43 39 44 44 47 38 31 38 39 41 42 40 39 41 42 42 40 39 40 42 37 33 29 32 31 30 32 32 35 40 41 41 45 41 41 41 41 40
45 45 45 45 45 44 40 37 43 45 47 38 31 32 38 40 40 40 40 40 41 40 39 39 40 40 40 30 29 36 36 35 37 41 41 35 40 38 40 40 40 41 41 41
45 45 45 45 46 45 42 44 44 45 39 36 29 28 33 40 35 35 41 38 39 39 38 40 36 38 37 33 34 36 36 39 40 40 41 40 40 39 38 38 38 38 39 40
45 46 44 44 43 40 41 44 44 46 40 31 30 27 27 38 36 36 37 40 33 39 33 36 39 32 30 31 32 34 35 36 37 39 40 39 40 40 37 37 38 38 38 36
44 43 38 35 40 44 42 41 38 38 38 37 31 34 31 36 34 35 36 34 30 28 31 41 33 29 32 30 33 34 34 35 36 36 35 36 36 38 36 35 35 33 30 29
43 38 37 41 44 41 37 31 30 31 28 32 32 31 31 36 32 33 35 33 33 31 31 32 31 23 27 30 29 29 32 34 33 34 34 34 34 34 33 31 31 29 27 26
41 41 43 41 37 36 30 28 31 30 29 34 29 31 35 36 36 30 33 32 32 29 35 30 22 25 28 27 28 28 29 30 31 32 31 31 30 29 28 27 26 25 24 23
43 41 35 35 32 27 24 25 29 29 30 31 33 33 30 36 35 30 32 30 31 33 27 19 21 26 27 27 27 27 29 28 27 26 27 27 26 26 26 25 25 24 24 24
34 31 22 25 22 24 23 24 26 30 31 30 31 33 33 32 29 31 30 31 30 23 18 15 22 25 26 28 28 26 26 26 26 25 25 24 24 23 24 24 24 23 22 23
24 23 19 18 26 26 27 28 29 31 32 30 32 32 33 31 30 29 30 24 17 18 14 19 22 24 26 26 26 26 25 25 24 24 23 23 24 23 23 24 24 24 23 23
21 20 16 19 17 14 20 25 26 30 30 31 33 31 27 24 23 19 17 15 13 15 19 21 23 22 22 23 25 25 25 24 24 24 24 23 22 22 22 23 23 23 22 22
22 19 23 18 17 20 24 26 25 31 30 27 26 18 18 24 13 12 16 11 15 19 20 21 21 21 22 22 22 23 22 22 23 24 25 24 24 23 21 20 22 22 22 21